     2              OBSERVATION DATA    GPS                 RINEX VERSION / TYPE
teqc 2000Feb29 20021016 17:29:58UTC                         PGM / RUN BY / DATE
                                                            COMMENT
L2: 1 -> 1; 5 -> 5; 60 -> 9                                 COMMENT
L2: 1 -> 1; 5 -> 5; 60 -> 9                                 COMMENT
L2: 1 -> 1; 5 -> 5; 60 -> 9                                 COMMENT
L2: 1 -> 1; 5 -> 5; 60 -> 9                                 COMMENT
L2: 1 -> 1; 5 -> 5; 60 -> 9                                 COMMENT
Original Marker Name: FERR                                  COMMENT
Campaign Name: Yolo County Subsidence 2002                  COMMENT
4-Character Station Name: FERR                              COMMENT
6-Character Antenna Code: TRMCMP                            COMMENT
Vertical Measurement Point: BPA                             COMMENT
Vertical Offset to Rinex Ref. Point: 0.0000                 COMMENT
Radial Measurement Point: RRP                               COMMENT
Radial Offset to Rinex Ref. Point: 0.0000                   COMMENT
Antenna Height from Field Measurement: 2.0000 m             COMMENT
Additional Antenna Identification Info.:                    COMMENT
Model 22020.00+GP                                           COMMENT
Original XYZ: -2614789.4025 -4245240.6978 3964251.0185      COMMENT
New XYZ position is based on association with SCEC monument COMMENT
E1F8Z0Q8+0011. Position of that monument is believed to be  COMMENT
valid to within 1 m horizontally; vertical accuracy         COMMENT
should be no worse than 3-times this value.                 COMMENT
                                                            COMMENT
Revised Rinex header created by UCSD GPS archive for        COMMENT
GSAC on 27-Jun-2003 (2003:178) 16:32:28 GMT                 COMMENT
For assistance contact dagnew@ucsd.edu                      COMMENT
or anderson@python.ucsd.edu                                 COMMENT
                                                            COMMENT
FERRY                                                       MARKER NAME
FERR                                                        MARKER NUMBER
-Unknown- YOLO_COUNTY                                       OBSERVER / AGENCY
14594 TRIMBLE 4000 SSI NP 7.19; SP 3.04                     REC # / TYPE / VERS
50361 TR GEOD L1/L2 GP                                      ANT # / TYPE
 -2614789.2756 -4245240.4604  3964250.8837                  APPROX POSITION XYZ
        2.0000        0.0000        0.0000                  ANTENNA: DELTA H/E/N
     1     1     0                                          WAVELENGTH FACT L1/2
     7    C1    L1    L2    P1    P2    S1    S2            # / TYPES OF OBSERV
     0                                                      INTERVAL
  2002     7    11    18    45    0.000000                  TIME OF FIRST OBS
  2002     7    11    19    30   15.000000                  TIME OF LAST OBS
                                                            END OF HEADER
 02  7 11 18 45  0.0000000  0  7G 3G14G15G17G18G21G31
  21542288.4534       2596.96557
        24.7504
  21693079.5864     -23357.94757
        26.2504
  21471438.1094      20343.65257
        26.7504
  22162745.6954      23113.53256
        16.2504
  21392427.0784      18231.75458
        28.0004
  21000290.4384        489.41457
        26.5004
  23095783.8134     -16572.05756
        13.2504
 02  7 11 18 45 15.0000000  0  8G 3G 9G14G15G17G18G21G31
  21543742.5634      10235.56347
        25.5004
  23651717.3674      -7078.65153
         5.7504
  21685634.8364     -62476.87247
        25.0004
  21477843.5314      54008.80247
        25.2504
  22170028.8594      61387.57546
        15.7504
  21398158.3284      48349.75048
        28.0004
  21000530.8914       1751.42547
        26.7504
  23090495.0314     -44368.48246
        14.0004
 02  7 11 18 45 30.0000000  0  8G 3G 9G14G15G17G18G21G31
  21545161.0004      17690.82347
        25.5004
  23649166.4844     -20497.99145
         7.7504
  21678147.7664    -101824.29947    -10236.63456                  21678154.1764
        25.2504         24.0004
  21484202.8524      87430.88447      3460.16856                  21484210.8134
        23.0004         24.7504
  22177265.6564      99411.39946      3937.22556                  22177273.0434
        17.5004         16.0004
  21403836.7584      78189.14248      9274.19256                  21403842.2304
        28.0004         24.7504
  21000718.5474       2739.21947
        26.2504
  23085165.9534     -72370.31846    -10199.17756                  23085173.7504
        13.5004         13.0004
 02  7 11 18 45 45.0000000  0  8G 3G 9G14G15G17G18G21G31
  21546550.6804      24994.29047      4161.81956                  21546558.3014
        25.0004         25.5004
  23646580.1724     -34084.52745
         7.5004
  21670622.3984    -141368.21147    -41050.03546                  21670628.2934
        24.7504         24.0004
  21490523.7974     120641.67747     29338.70146                  21490532.0984
        25.2504         25.2504
  22184458.4534     137216.69846     33395.88346                  22184466.5554
        16.0004         17.0004
  21409467.9774     107781.58147     32333.22646                  21409474.1414
        27.7504         24.5004
  21000860.4614       3484.42547       407.10657                  21000867.2464
        26.0004         26.2504
  23079804.3984    -100545.45746    -32153.78046                  23079812.8634
        14.2504         13.7504
 02  7 11 18 46  0.0000000  0  8G 3G 9G14G15G17G18G21G31
  21547917.7424      32176.04547      9757.96746                  21547925.1524
        26.0004         25.5004
  23643965.0704     -47808.08343
         5.5004
  21663065.2424    -181078.34047    -71992.96846                  21663071.2424
        23.5004         24.2504
  21496809.2114     153671.18647     55075.95446                  21496817.1374
        25.7504         25.0004
  22191618.0084     174833.59046     62707.67846                  22191625.8284
        18.2504         17.2504
  21415057.8594     137156.97547     55223.12046                  21415063.4264
        27.7504         24.7504
  21000961.5704       4017.17647       822.23747                  21000968.1094
        26.0004         25.7504
  23074416.1414    -128863.66846    -54219.88046                  23074424.7934
        14.5004         13.7504
 02  7 11 18 46 15.0000000  0  8G 3G 9G14G15G17G18G21G31
  21549265.7034      39256.87947     15275.49147                  21549272.5984
        27.0004         25.7504
  23641334.0234     -61647.34843
         5.7504
  21655481.2424    -220933.55947   -103048.95346                  21655487.2664
        24.5004         24.0004
  21503063.9694     186540.15747     80688.10346                  21503071.5554
        25.5004         24.2504
  22198744.0704     212282.72046     91888.78646                  22198751.8324
        17.5004         17.5004
  21420610.8674     166335.96248     77959.96746                  21420616.3284
        29.0004         25.0004
  21001026.5474       4358.15047      1087.94346                  21001032.9804
        26.2504         25.5004
  23069002.1484    -157303.83546    -76381.02646                  23069010.2504
        13.0004         13.0004
 02  7 11 18 46 30.0000000  0  8G 3G 9G14G15G17G18G21G31
  21550597.8364      46259.71647     20732.22747                  21550604.7304
        26.2504         25.7504
  23638682.3524     -75579.19943     -5074.29455                  23638690.0314
         5.5004          6.0004
  21647874.5234    -260910.52247   -134199.79746                  21647880.8754
        25.0004         24.2504
  21509292.4224     219271.68447    106193.15646                  21509299.5744
        25.5004         24.2504
  22205843.2664     249587.22846    120957.17346                  22205850.9694
        17.5004         17.2504
  21426130.0474     195341.54948    100561.71746                  21426135.5664
        28.0004         25.2504
  21001059.3984       4530.28047      1222.06846                  21001065.3164
        26.2504         25.2504
  23063572.2584    -185842.64946    -98619.02346                  23063580.3014
        12.7504         12.5004
 02  7 11 18 46 45.0000000  0  8G 3G 9G14G15G17G18G21G31
  21551918.6174      53199.96547     26140.19946                  21551925.6644
        26.0004         25.5004
  23636016.7034     -89587.90343    -15990.04645                  23636023.2544
         5.2504          5.0004
  21640245.6644    -300993.60347   -165433.32646                  21640252.1214
        23.0004         24.0004
  21515497.5864     251881.14547    131603.09846                  21515504.9844
        24.2504         24.0004
  22212918.0164     286762.50246    149924.85946                  22212925.5084
        17.7504         16.7504
  21431619.6174     224188.95848    123040.19846                  21431625.5704
        28.0004         25.5004
  21001063.1954       4549.08647      1236.71846                  21001069.2194
        26.7504         25.5004
  23058125.7424    -214464.37546   -120921.66646                  23058133.7154
        12.7504         12.2504
 02  7 11 18 47  0.0000000  0  8G 3G 9G14G15G17G18G21G31
  21553230.4064      60094.58047     31512.61747                  21553237.5704
        26.0004         25.7504
  23633340.4534    -103656.21744    -26952.38445                  23633351.4494
         6.2504          5.5004
  21632602.3984    -341165.42647   -196736.02446                  21632608.6914
        24.7504         24.2504
  21521682.7584     284385.50847    156931.12746                  21521690.1564
        24.0004         23.5004
  22219970.0164     323825.41946    178805.01046                  22219978.1764
        16.2504         16.7504
  21437082.7424     252895.08048    145408.58547                  21437088.5784
        29.0004         25.7504
  21001040.8834       4431.55747      1145.13847                  21001047.0004
        27.5004         26.0004
  23052667.7274    -243151.83246   -143275.52246                  23052674.8674
        13.5004         12.5004
 02  7 11 18 47 15.0000000  0  8G 3G 9G14G15G17G18G21G31
  21554536.0004      66953.17447     36856.95847                  21554543.2584
        26.5004         25.7504
  23630653.1414    -117774.31344    -37953.42845                  23630658.1334
         7.2504          5.5004
  21624942.9844    -381416.08447   -228100.13646                  21624949.2664
        25.0004         24.2504
  21527850.8284     316794.34647    182184.74446                  21527858.1454
        26.0004         24.2504
  22227002.7194     360785.67446    207605.15446                  22227010.7154
        15.0004         16.2504
  21442519.5554     281469.32147    167674.20246                  21442525.4964
        27.7504         25.5004
  21000993.7114       4186.98447       954.56647                  21001000.0394
        26.7504         26.0004
  23047198.2424    -271895.10946   -165672.85346                  23047205.1844
        14.2504         13.0004
 02  7 11 18 47 30.0000000  0  8G 3G 9G14G15G17G18G21G31
  21555835.5164      73786.25747     42181.43547                  21555842.8094
        25.0004         26.2504
  23627960.1094    -131931.21445    -48984.67245                  23627965.6414
         7.7504          5.7504
  21617270.5784    -421734.71547   -259517.21446                  21617276.6724
        24.7504         24.5004
  21534001.1724     349118.17447    207372.10546                  21534008.6174
        24.7504         24.5004
  22234018.4064     397653.68846    236333.41046                  22234026.8134
        14.2504         16.0004
  21447934.0864     309922.22047    189845.26846                  21447940.0744
        27.7504         25.2504
  21000925.6024       3826.04547       673.31047                  21000932.2464
        26.7504         25.7504
  23041719.2504    -300683.43246   -188105.30546                  23041726.7424
        14.0004         13.5004
 02  7 11 18 47 45.0000000  0  8G 3G 9G14G15G17G18G21G31
  21557133.8204      80607.59347     47496.75647                  21557141.1604
        25.5004         26.0004
  23625262.0394    -146112.81345    -60035.19945                  23625265.4494
         7.7504          6.2504
  21609587.1724    -462107.30147   -290976.33146                  21609593.4064
        23.7504         24.5004
  21540138.7584     381370.94447    232504.10446                  21540146.1094
        25.0004         25.0004
  22241019.5314     434443.22746    265000.52046                  22241028.5704
        15.0004         16.0004
  21453328.3134     338267.49748    211932.48146                  21453333.9734
        28.7504         25.0004
  21000837.1484       3362.56547       312.17546                  21000843.5234
        26.5004         25.2504
  23036235.1724    -329502.57846   -210561.75746                  23036242.9104
        13.7504         13.5004
 02  7 11 18 48  0.0000000  0  8G 3G 9G14G15G17G18G21G31
  21558431.6094      87429.11747     52812.21246                  21558438.9494
        24.5004         25.5004
  23622559.8754    -160306.80944    -71095.35545                  23622570.4964
         6.5004          6.2504
  21601896.8984    -502521.46047   -322467.85046                  21601903.2034
        23.7504         24.2504
  21546265.4304     413564.54447    257589.98446                  21546272.6524
        25.2504         25.0004
  22248008.1804     471166.51346    293616.01646                  22248016.5744
        16.5004         16.0004
  21458703.8134     366517.08647    233945.12646                  21458709.6724
        27.7504         25.0004
  21000731.2734       2808.39747      -119.63446                  21000737.5904
        25.2504         24.7504
  23030747.9304    -358340.31146   -233032.68646                  23030755.2114
        14.7504         14.0004
 02  7 11 18 48 15.0000000  0  8G 3G 9G14G15G17G18G21G31
  21559730.8284      94253.39747     58129.82946                  21559737.8984
        25.7504         25.2504
  23619857.9924    -174510.32544    -82163.02645                  23619864.8134
         7.2504          6.0004
  21594198.7584    -542974.32147   -353989.52146                  21594205.1564
        23.2504         24.2504
  21552380.6024     445701.66847    282631.87246                  21552388.0354
        25.0004         25.5004
  22254984.7584     507825.92846    322181.74746                  22254992.7304
        17.2504         16.2504
  21464061.9454     394673.49448    255885.16546                  21464067.7344
        28.0004         24.7504
  21000609.0784       2166.20347      -620.05146                  21000615.6174
        24.7504         24.7504
  23025257.1724    -387193.78046   -255515.88246                  23025264.9574
        14.0004         13.7504
 02  7 11 18 48 30.0000000  0  8G 3G 9G14G15G17G18G21G31
  21561031.2194     101089.40547     63456.56646                  21561037.9344
        25.0004         25.2504
  23617154.4064    -188714.11044    -93230.91545                  23617161.6994
         7.0004          7.5004
  21586495.1414    -583456.54847   -385534.08546                  21586501.1294
        23.7504         24.2504
  21558487.1094     477791.26347    307636.71246                  21558495.0234
        24.7504         25.5004
  22261950.0784     544430.49646    350704.74546                  22261958.0744
        16.5004         16.2504
  21469403.7894     422745.55347    277759.48546                  21469409.7544
        27.7504         24.0004
  21000471.8134       1444.77647     -1182.20046                  21000478.3164
        24.7504         25.2504
  23019764.5314    -416053.70946   -278004.10446                  23019772.9494
        13.0004         13.7504
 02  7 11 18 48 45.0000000  0  8G 3G 9G14G15G17G18G21G31
  21562336.1484     107943.11147     68797.10946                  21562342.8634
        26.7504         25.5004
  23614453.7584    -202911.80845   -104294.01245                  23614460.0274
         7.7504          6.5004
  21578787.7194    -623961.78847   -417096.57446                  21578793.9414
        24.5004         24.2504
  21564585.7584     509839.29547    332609.16946                  21564593.1684
        25.5004         24.7504
  22268906.7814     580986.38946    379189.79446                  22268914.4494
        16.5004         16.0004
  21474730.4384     450739.17547    299572.67246                  21474736.3094
        26.2504         23.7504
  21000320.6954        650.12047     -1801.40246                  21000326.9184
        25.0004         25.2504
  23014272.1174    -444913.76646   -300492.43846                  23014280.9104
        12.7504         13.0004
 02  7 11 18 49  0.0000000  0  8G 3G 9G14G15G17G18G21G31
  21563644.9614     114821.71647     74157.05847                  21563652.0314
        26.5004         26.0004
  23611753.2034    -217096.01144   -115346.65945                  23611759.8244
         7.2504          7.2504
  21571076.5474    -664482.62447   -448671.21346                  21571082.7584
        24.2504         24.2504
  21570677.5634     541852.95847    357554.85846                  21570684.8554
        24.2504         24.5004
  22275854.2344     617500.63746    407642.39646                  22275862.3594
        14.7504         16.2504
  21480043.9774     478661.50947    321330.31546                  21480049.9534
        26.5004         23.5004
  21000156.9774       -210.59247     -2472.07746                  21000163.3634
        25.5004         25.5004
  23008781.1804    -473766.49646   -322975.06746                  23008790.0084
        12.2504         12.7504
 02  7 11 18 49 15.0000000  0  8G 3G 9G14G15G17G18G21G31
  21564959.3204     121728.85547     79539.22647                  21564966.4734
        26.2504         26.2504
  23609056.7814    -231262.70344   -126385.58045                  23609065.6094
         6.2504          6.5004
  21563362.8914    -705014.99947   -480254.84446                  21563369.3954
        23.5004         24.2504
  21576764.2664     573835.89547    382476.59246                  21576771.3134
        25.2504         24.0004
  22282795.8594     653976.92446    436065.40446                  22282803.9264
        15.5004         16.0004
  21485344.7424     506516.18547    343035.24746                  21485350.5204
        27.2504         24.2504
  20999981.5394      -1133.42447     -3191.15546                  20999988.0904
        25.7504         25.5004
  23003293.1174    -502607.96746   -345448.92245                  23003300.8204
        12.2504         11.5004
 02  7 11 18 49 30.0000000  0  8G 3G 9G14G15G17G18G21G31
  21566280.5784     128671.36447     84948.97247                  21566287.9064
        26.7504         26.2504
  23606366.9534    -245404.66544   -137405.23645                  23606374.6914
         7.2504          7.0004
  21555648.8134    -745551.83647   -511841.96346                  21555655.3054
        23.0004         24.2504
  21582845.9694     605795.14947    407379.86646                  21582853.2384
        24.7504         23.5004
  22289730.3984     690422.21646    464464.28246                  22289739.2154
        13.5004         15.7504
  21490633.6484     534309.96048    364692.70946                  21490639.5204
        28.0004         24.5004
  20999795.6414      -2111.59547     -3953.35546                  20999802.2734
        26.2504         25.5004
  22997809.0784    -531430.94346   -367908.36746                  22997816.8874
        13.0004         12.2504
 02  7 11 18 49 45.0000000  0  8G 3G 9G14G15G17G18G21G31
  21567608.3984     135650.64047     90387.36247                  21567615.8094
        26.2504         26.2504
  23603681.5084    -259520.12244   -148404.22345                  23603690.2424
         7.0004          7.0004
  21547934.3594    -786091.26447   -543431.09246                  21547941.4184
        22.2504         24.2504
  21588922.6804     637732.17947    432265.82646                  21588930.0664
        23.7504         23.7504
  22296661.7504     726837.99046    492840.14846                  22296670.6254
        16.0004         15.7504
  21495911.9384     562044.28748    386303.85446                  21495917.3874
        30.0004         25.2504
  20999598.6644      -3143.66147     -4757.56146                  20999605.2624
        24.7504         25.5004
  22992328.4304    -560233.61046   -390351.98346                  22992334.7464
        14.0004         12.7504
 02  7 11 18 50  0.0000000  0  8G 3G 9G14G15G17G18G21G31
  21568944.7274     142670.55047     95857.41147                  21568951.8324
        27.0004         26.2504
  23601001.2894    -273605.02844   -159379.42045                  23601010.7274
         6.7504          7.5004
  21540220.2584    -826629.13847   -575019.01246                  21540226.7734
        22.5004         24.5004
  21594996.3914     669650.72147    457137.39046                  21595004.3634
        23.0004         23.5004
  22303586.8524     763228.00646    521195.96246                  22303595.3874
        15.7504         15.5004
  21501179.0394     589722.82748    407871.53146                  21501184.3014
        30.2504         25.5004
  20999392.7584      -4225.80447     -5600.78847                  20999399.5314
        25.0004         25.7504
  22986851.7974    -589011.89846   -412776.61146                  22986858.3134
        13.0004         12.5004
 02  7 11 18 50 15.0000000  0  8G 3G 9G14G15G17G18G21G31
  21570289.5704     149740.95447    101366.79947                  21570296.6414
        26.0004         26.2504
  23598326.6484    -287649.23743   -170322.93645                  23598334.9614
         5.2504          7.2504
  21532509.2034    -867155.28347   -606597.79846                  21532515.2974
        24.5004         24.7504
  21601068.6024     701560.71047    482002.28546                  21601076.2464
        22.7504         23.7504
  22310507.4614     799602.05646    549539.33646                  22310515.4104
        14.5004         15.0004
  21506437.3284     617355.36148    429403.35647                  21506442.8954
        30.0004         25.7504
  20999179.4534      -5348.12047     -6475.32047                  20999186.2274
        26.0004         26.0004
  22981381.8524    -617755.73546   -435174.37646                  22981388.8054
        12.7504         12.0004
 02  7 11 18 50 30.0000000  0  8G 3G 9G14G15G17G18G21G31
  21571644.4064     156860.86347    106914.77047                  21571651.5354
        26.0004         25.7504
  23595662.8444    -301653.24943   -181235.09245                  23595674.2974
         5.7504          7.7504
  21524800.0634    -907670.26247   -638167.88646                  21524805.7934
        25.2504         24.7504
  21607139.6334     733461.19647    506859.78446                  21607147.1844
        23.5004         23.5004
  22317426.0394     835959.45846    577869.72446                  22317433.8954
        14.5004         15.0004
  21511686.9224     644940.99748    450898.64647                  21511692.6054
        30.5004         25.7504
  20998958.3984      -6511.66647     -7381.97547                  20998964.7504
        26.7504         26.2504
  22975919.0394    -646465.68446   -457545.76446                  22975926.0514
        13.5004         12.7504
 02  7 11 18 50 45.0000000  0  8G 3G 9G14G15G17G18G21G31
  21573008.7584     164031.81947    112502.52347                  21573015.8164
        25.2504         25.7504
  23593004.8134    -315615.13443   -192114.41045                  23593015.1644
         6.0004          8.0004
  21517092.8284    -948172.16347   -669727.74346                  21517098.3834
        26.0004         24.7504
  21613208.7974     765353.93547    531711.21646                  21613216.4884
        23.7504         23.7504
  22324342.4844     872301.76546    606188.34446                  22324350.6094
        16.0004         15.5004
  21516927.2194     672481.38748    472358.66346                  21516933.0204
        29.0004         25.2504
  20998729.9454      -7714.59748     -8319.32147                  20998736.0394
        28.5004         26.5004
  22970462.6724    -675139.72946   -479889.15646                  22970469.2344
        14.0004         12.7504
 02  7 11 18 51  0.0000000  0  8G 3G 9G14G15G17G18G21G31
  21574385.3754     171264.15447    118138.10847                  21574392.7034
        26.0004         25.7504
  23590357.7974    -329524.35843   -202952.75245                  23590368.3244
         5.7504          8.2504
  21509389.8204    -988650.27947   -701269.09646                  21509395.7034
        26.0004         25.0004
  21619278.7664     797249.15847    556564.61346                  21619285.9654
        24.5004         23.5004
  22331257.9144     908639.26946    634503.20946                  22331265.9804
        16.5004         15.5004
  21522161.0084     699986.74248    493791.39046                  21522167.0204
        28.0004         25.2504
  20998495.5474      -8946.83648     -9279.50247                  20998501.1604
        29.0004         26.7504
  22965014.4224    -703767.29846   -502196.32046                  22965022.8874
        13.5004         13.2504
 02  7 11 18 51 15.0000000  0  8G 3G 9G14G15G17G18G21G31
  21575772.5784     178553.78347    123818.32947                  21575779.7424
        26.2504         25.7504
  23587719.3054    -343384.58542   -213752.89845                  23587732.5744
         4.7504          7.5004
  21501689.8134   -1029108.45047   -732794.89346                  21501696.2704
        24.2504         25.0004
  21625347.1334     829142.91747    581416.86646                  21625354.7424
        23.5004         23.7504
  22338170.8674     944967.91046    662811.18446                  22338179.9184
        16.2504         15.2504
  21527387.6174     727452.75547    515193.46146                  21527393.6994
        27.7504         25.0004
  20998254.2814     -10212.38548    -10265.62247                  20998260.4104
        28.0004         26.2504
  22959575.2274    -732352.14846   -524470.18046                  22959583.0594
        14.2504         13.5004
 02  7 11 18 51 30.0000000  0  8G 3G 9G14G15G17G18G21G31
  21577171.0314     185903.83247    129545.62846                  21577177.9844
        25.5004         25.5004
  23585092.5474    -357192.45543   -224512.26645                  23585102.8984
         5.7504          7.7504
  21493995.5234   -1069543.15647   -764302.42346                  21494002.1454
        24.7504         25.0004
  21631416.5394     861038.36447    606270.42146                  21631424.1724
        23.0004         23.5004
  22345082.3754     981290.87946    691114.73346                  22345090.5594
        16.2504         15.5004
  21532607.2114     754882.55147    536567.31746                  21532613.2344
        27.5004         25.0004
  20998007.1954     -11507.88747    -11275.09347                  20998014.0164
        26.5004         26.5004
  22954143.5864    -760890.93146   -546708.16046                  22954150.4184
        13.2504         12.5004
 02  7 11 18 51 45.0000000  0  8G 3G 9G14G15G17G18G21G31
  21578581.5944     193317.22147    135322.29246                  21578588.3444
        24.7504         25.2504
  23582474.6484    -370944.76643   -235228.29045                  23582486.8284
         6.0004          8.0004
  21486305.6024   -1109951.18347   -795789.16046                  21486312.1884
        23.5004         25.0004
  21637487.2114     892938.43447    631127.58746                  21637495.2074
        22.7504         23.2504
  22351994.7504    1017611.14346    719416.18246                  22352003.0634
        17.0004         15.7504
  21537820.9384     782279.07647    557915.23146                  21537827.0084
        27.7504         24.7504
  20997755.8834     -12830.42547    -12305.64547                  20997762.9774
        27.0004         26.7504
  22948721.9534    -789380.34546   -568907.69946                  22948729.0944
        12.7504         12.5004
 02  7 11 18 52  0.0000000  0  8G 3G 9G14G15G17G18G21G31
  21580005.1644     200798.47547    141151.82446                  21580011.9024
        25.0004         25.5004
  23579872.0394    -384636.61545   -245897.25245                  23579879.9534
         8.7504          8.0004
  21478622.8984   -1150327.59747   -827251.27646                  21478629.3674
        24.7504         25.0004
  21643559.2584     924847.65247    655991.86646                  21643567.3954
        22.0004         23.2504
  22358905.9924    1053933.31846    747719.11746                  22358913.8834
        16.0004         15.5004
  21543029.4844     809646.93248    579240.80146                  21543035.1564
        28.7504         24.5004
  20997500.0864     -14175.35447    -13353.64647                  20997506.8244
        27.0004         26.5004
  22943312.0944    -817815.45146   -591064.90546                  22943319.9024
        13.5004         12.5004
 02  7 11 18 52 15.0000000  0  8G 3G 9G14G15G17G18G21G31
  21581442.0084     208346.07347    147033.05647                  21581448.6414
        26.0004         25.7504
  23577276.6644    -398269.05145   -256519.91345                  23577285.2344
         7.7504          8.7504
  21470945.9304   -1190673.45947   -858689.57746                  21470951.9414
        26.2504         25.2504
  21649632.6174     956764.67047    680862.24546                  21649640.6134
        22.0004         23.0004
  22365817.9844    1090255.88546    776022.33346                  22365826.6484
        15.5004         15.2504
  21548231.4304     836984.63348    600542.89846                  21548237.1604
        28.2504         24.0004
  20997239.3594     -15544.37347    -14420.40847                  20997245.8524
        26.7504         26.5004
  22937910.8524    -846197.47046   -613180.70646                  22937918.1804
        13.5004         12.7504
 02  7 11 18 52 30.0000000  0  8G 3G 9G14G15G17G18G21G31
  21582891.8054     215964.81047    152969.72646                  21582898.5204
        26.2504         25.5004
  23574696.0784    -411837.18945   -267092.43645                  23574703.7464
         8.0004          8.0004
  21463274.4384   -1230983.80247   -890100.19346                  21463280.4734
        25.0004         25.5004
  21655708.6094     988694.26347    705742.41546                  21655716.4064
        22.2504         22.7504
  22372731.0864    1126583.68246    804329.64146                  22372739.2704
        15.2504         15.2504
  21553428.0704     864296.77647    621825.07446                  21553434.1524
        27.0004         23.7504
  20996975.1174     -16932.59647    -15502.13147                  20996981.3284
        26.7504         26.0004
  22932521.6954    -874521.33946   -635251.25146                  22932529.1644
        14.7504         13.2504
 02  7 11 18 52 45.0000000  0  8G 3G 9G14G15G17G18G21G31
  21584355.2274     223654.11547    158961.38346                  21584361.8364
        26.7504         25.5004
  23572125.7194    -425341.17645   -277614.94645                  23572134.2894
         7.5004          7.7504
  21455610.7584   -1271258.77147   -921483.24447                  21455616.9454
        26.2504         25.7504
  21661787.0314    1020635.91547    730631.97846                  21661795.0864
        22.2504         22.7504
  22379644.6564    1162916.24746    832640.67246                  22379653.3674
        14.2504         15.0004
  21558620.9064     891582.87247    643086.95246                  21558626.8014
        27.7504         23.7504
  20996707.6804     -18340.57647    -16599.24547                  20996713.6804
        27.7504         25.7504
  22927143.0634    -902787.25946   -657276.63246                  22927150.7894
        15.7504         14.0004
 02  7 11 18 53  0.0000000  0  8G 3G 9G14G15G17G18G21G31
  21585831.9384     231413.56647    165007.69046                  21585838.7114
        26.7504         25.5004
  23569568.5164    -438780.95144   -288087.50445                  23569572.2304
         7.2504          6.2504
  21447953.0784   -1311498.33547   -952838.70347                  21447959.5824
        25.5004         26.0004
  21667868.0554    1052589.36147    755530.72146                  21667876.0164
        22.2504         23.0004
  22386559.5164    1199253.12146    860955.07046                  22386568.6134
        14.7504         15.0004
  21563807.9694     918842.42947    664328.16146                  21563813.9224
        27.7504         24.2504
  20996435.6884     -19768.54247    -17711.93946                  20996442.1334
        26.7504         25.5004
  22921776.1414    -930995.20346   -679256.83646                  22921783.8794
        16.2504         14.5004
 02  7 11 18 53 15.0000000  0  8G 3G 9G14G15G17G18G21G31
  21587322.4844     239247.07547    171111.72647                  21587329.3914
        26.5004         25.7504
  23567025.2344    -452152.23744   -298506.63545                  23567032.1174
         6.7504          6.5004
  21440303.7894   -1351698.40347   -984163.40147                  21440310.3164
        26.2504         26.0004
  21673951.8834    1084558.50247    780441.70246                  21673959.5634
        23.2504         22.5004
  22393474.9694    1235598.28246    889275.94346                  22393484.1604
        13.5004         15.0004
  21568991.3054     946079.25748    685551.64346                  21568997.0824
        28.7504         24.7504
  20996160.3054     -21212.71747    -18837.25646                  20996166.9384
        25.2504         25.0004
  22916419.4844    -959141.14946   -701188.74646                  22916427.1994
        15.7504         14.2504
 02  7 11 18 53 30.0000000  0  8G 3G 9G14G15G17G18G21G31
  21588827.7194     247156.51647    177274.91146                  21588834.6724
        26.7504         25.5004
  23564493.2344    -465452.91243   -308870.80045                  23564499.9144
         6.0004          6.7504
  21432662.2034   -1391856.56447  -1015455.43247                  21432668.7074
        27.0004         25.7504
  21680038.4614    1116545.32547    805366.47246                  21680046.1524
        22.7504         22.0004
  22400393.6484    1271953.85646    917604.93246                  22400402.7344
        14.5004         14.7504
  21574170.9224     973295.27748    706758.91546                  21574176.1844
        30.5004         24.7504
  20995883.0554     -22671.02947    -19973.59846                  20995889.2424
        25.2504         24.7504
  22911075.4694    -987222.70846   -723070.45446                  22911083.8284
        14.7504         13.5004
 02  7 11 18 53 45.0000000  0  8G 3G 9G14G15G17G18G21G31
  21590346.7344     255141.39447    183496.87346                  21590353.4144
        25.5004         25.2504
  23561974.7974    -478683.18543   -319180.04445                  23561978.6644
         6.0004          6.5004
  21425028.3444   -1431973.09247  -1046715.02446                  21425034.6604
        27.2504         25.5004
  21686128.9064    1148549.33747    830304.62346                  21686136.8094
        23.0004         22.0004
  22407314.8364    1308319.09146    945941.39546                  22407323.0664
        15.0004         14.5004
  21579345.5634    1000490.01348    727949.59346                  21579350.7894
        28.7504         24.5004
  20995602.9694     -24144.08647    -21121.42746                  20995608.9804
        26.2504         24.7504
  22905742.8284   -1015240.18346   -744902.22946                  22905751.2464
        14.2504         13.7504
 02  7 11 18 54  0.0000000  0  8G 3G 9G14G15G17G18G21G31
  21591881.0554     263203.25347    189778.84146                  21591887.7344
        26.2504         25.2504
  23559470.6484    -491841.19643   -329433.03745                  23559475.8984
         6.0004          6.2504
  21417401.7734   -1472046.05747  -1077940.67646                  21417407.8674
        26.2504         25.2504
  21692221.3524    1180572.09347    855257.38746                  21692229.0784
        20.0004         21.2504
  22414236.7034    1344695.68546    974286.74546                  22414244.8164
        15.2504         15.0004
  21584516.4774    1027664.93647    749124.83546                  21584522.3014
        26.5004         24.0004
  20995320.5704     -25630.32747    -22279.52346                  20995326.6644
        27.5004         25.2504
  22900423.5474   -1043191.57546   -766682.50746                  22900431.3674
        14.2504         13.5004
 02  7 11 18 54 15.0000000  0  8G 3G 9G14G15G17G18G21G31
  21593430.1564     271344.30247    196122.49946                  21593436.7304
        26.0004         25.2504
  23556985.2814    -504924.41044   -339627.76445                  23556993.4414
         6.2504          6.5004
  21409784.4694   -1512072.93547  -1109130.41546                  21409790.4344
        25.5004         25.2504
  21698319.8284    1212615.84447    880226.52746                  21698327.6134
        20.7504         21.0004
  22421160.7194    1381085.89846   1002642.67846                  22421169.5704
        15.0004         15.0004
  21589683.9144    1054822.33247    770286.42146                  21589689.8914
        25.2504         23.0004
  20995034.9064     -27127.34147    -23446.02247                  20995041.3284
        26.0004         25.7504
  22895117.5634   -1071074.48546   -788409.44946                  22895124.9494
        14.0004         13.5004
 02  7 11 18 54 30.0000000  0  8G 3G 9G14G15G17G18G21G31
  21594994.1024     279563.69747    202527.22246                  21595000.8164
        25.5004         25.2504
  23554505.3594    -517933.30742   -349764.51845                  23554511.4884
         4.7504          6.0004
  21402176.5864   -1552054.09347  -1140284.52846                  21402182.6214
        26.2504         25.5004
  21704421.4614    1244679.81047    905211.40246                  21704428.7074
        21.5004         21.0004
  22428087.2274    1417488.93946   1031008.62546                  22428097.0274
        13.5004         14.7504
  21594848.7344    1081961.26047    791433.61746                  21594854.7114
        25.7504         23.0004
  20994747.3284     -28635.94147    -24621.55646                  20994754.3524
        25.0004         25.5004
  22889824.2344   -1098889.46346   -810083.41846                  22889831.5044
        13.5004         13.2504
 02  7 11 18 54 45.0000000  0  8G 3G 9G14G15G17G18G21G31
  21596574.0474     287864.51947    208995.39147                  21596581.1414
        26.5004         25.7504
  23552043.3134    -530864.47142   -359840.74945                  23552057.5554
         4.0004          5.2504
  21394578.1334   -1591986.20047  -1171400.41847                  21394584.3204
        26.7504         25.7504
  21710527.2664    1276767.09547    930214.43546                  21710534.4774
        21.2504         21.0004
  22435017.1254    1453907.92846   1059386.98846                  22435027.2194
        12.5004         15.0004
  21600010.7664    1109084.84347    812568.84046                  21600016.4144
        27.0004         23.5004
  20994458.8914     -30153.00147    -25803.67646                  20994465.7114
        25.0004         25.5004
  22884545.1174   -1126632.97146   -831701.70546                  22884552.7274
        14.5004         13.7504
 02  7 11 18 55  0.0000000  0  8G 3G 9G14G15G17G18G21G31
  21598168.2194     296242.99647    215524.06747                  21598175.4774
        26.0004         26.2504
  23549598.1484    -543721.36743   -369859.15545                  23549609.4264
         5.7504          5.2504
  21386988.6954   -1631872.62448  -1202480.71847                  21386994.3914
        28.2504         26.2504
  21716637.6564    1308874.03447    955232.80746                  21716645.0554
        22.2504         21.7504
  22441951.9454    1490339.24346   1087774.95546                  22441961.0784
        15.0004         15.0004
  21605168.3984    1136189.34847    833689.20946                  21605173.8954
        27.7504         23.7504
  20994168.8834     -31682.28947    -26995.32447                  20994175.1764
        27.7504         25.7504
  22879278.9224   -1154308.40046   -853266.95646                  22879285.6254
        14.2504         13.7504
 02  7 11 18 55 15.0000000  0  8G 3G 9G14G15G17G18G21G31
  21599778.9454     304703.22348    222116.43347                  21599786.3204
        28.0004         26.2504
  23547168.2894    -556499.51744   -379816.09345                  23547174.2544
         6.7504          5.5004
  21379407.5704   -1671708.88747  -1233521.92947                  21379413.1024
        27.5004         26.2504
  21722752.1334    1341004.81547    980269.73846                  21722759.6954
        23.0004         22.2504
  22448887.4304    1526786.95546   1116175.67946                  22448895.8484
        14.7504         14.7504
  21610323.0474    1163278.72748    854797.80346                  21610328.6134
        28.0004         23.7504
  20993876.2424     -33219.56148    -28193.19746                  20993882.3134
        28.0004         25.5004
  22874026.6334   -1181911.53446   -874775.85246                  22874033.6094
        15.0004         14.2504
 02  7 11 18 55 30.0000000  0  8G 3G 9G14G15G17G18G21G31
  21601404.3754     313247.53747    228774.32447                  21601411.3984
        26.7504         26.5004
  23544751.5164    -569196.31344   -389709.69445                  23544758.5164
         6.5004          7.0004
  21371836.5704   -1711492.33947  -1264521.97846                  21371842.4304
        26.2504         25.5004
  21728871.8054    1373161.85447   1005327.14846                  21728879.0984
        23.7504         22.5004
  22455826.4534    1563253.46646   1144591.10246                  22455834.7194
        14.5004         14.0004
  21615475.7664    1190355.38548    875896.49146                  21615481.5084
        28.0004         24.0004
  20993581.8444     -34762.56047    -29395.51447                  20993588.0904
        26.5004         25.7504
  22868789.0164   -1209439.45946   -896226.16846                  22868797.3524
        16.5004         15.2504
 02  7 11 18 55 45.0000000  0  8G 3G 9G14G15G17G18G21G31
  21603045.8834     321874.00447    235496.23647                  21603053.0124
        26.7504         26.2504
  23542350.3134    -581813.27743   -399541.07945                  23542357.3134
         5.7504          6.5004
  21364275.7504   -1751224.57347  -1295482.12547                  21364281.8444
        25.7504         25.7504
  21734995.3364    1405343.29847   1030403.56646                  21735003.0744
        23.5004         22.7504
  22462769.6094    1599736.92246   1173019.70446                  22462776.9614
        14.7504         14.0004
  21620625.1094    1217417.45347    896983.81046                  21620631.0514
        27.5004         23.5004
  20993286.6724     -36312.98647    -30603.63247                  20993292.9534
        26.0004         25.7504
  22863564.4774   -1236893.89346   -917619.20846                  22863573.1644
        16.2504         14.7504
 02  7 11 18 56  0.0000000  0  8G 3G 9G14G15G17G18G21G31
  21604703.5944     330585.76247    242284.60247                  21604710.4024
        26.2504         26.0004
  23539965.3754    -594346.97043   -409307.54345                  23539974.4384
         5.5004          5.5004
  21356724.7114   -1790902.06747  -1326399.61246                  21356730.8984
        24.5004         25.5004
  21741125.1484    1437552.37647   1055501.52446                  21741133.2504
        24.2504         23.2504
  22469714.7424    1636240.48646   1201463.97646                  22469723.0554
        13.5004         15.2504
  21625772.4454    1244467.98247    918062.13146                  21625778.6454
        26.5004         23.0004
  20992991.3754     -37867.61547    -31815.03447                  20992997.5164
        27.0004         26.2504
  22858354.2504   -1264271.33346   -938952.26746                  22858362.3984
        16.2504         15.2504
 02  7 11 18 56 15.0000000  0  8G 3G 9G14G15G17G18G21G31
  21606378.6174     339385.76047    249141.73347                  21606385.6644
        26.5004         25.7504
  23537598.1484    -606794.19243   -419006.59645                  23537602.1684
         5.2504          6.0004
  21349186.2894   -1830521.44347  -1357271.83746                  21349192.2074
        25.5004         25.5004
  21747259.9534    1469792.02147   1080623.29446                  21747267.6454
        25.0004         23.7504
  22476666.3054    1672767.26346   1229926.34446                  22476675.9064
        14.2504         15.0004
  21630919.3364    1271509.92648    939133.74546                  21630925.0314
        28.2504         23.0004
  20992695.7114     -39423.58948    -33027.47647                  20992701.8284
        28.0004         26.5004
  22853159.8284   -1291568.46946   -960222.74946                  22853167.2854
        16.5004         15.0004
 02  7 11 18 56 30.0000000  0  8G 3G 9G14G15G17G18G21G31
  21608069.6254     348271.51047    256065.67747                  21608076.2934
        26.5004         25.7504
  23535246.3134    -619157.19743   -428640.13045                  23535247.1214
         5.2504          5.5004
  21341657.0864   -1870084.97047  -1388100.51347                  21341663.2154
        25.0004         25.7504
  21753400.2114    1502059.78047   1105766.96346                  21753408.0784
        24.0004         23.7504
  22483621.5314    1709314.66746   1258404.75546                  22483631.4024
        14.2504         15.0004
  21636062.4224    1298540.77247    960196.72646                  21636068.1994
        26.2504         23.2504
  20992398.6484     -40983.29247    -34242.82647                  20992405.0474
        27.7504         27.0004
  22847979.5164   -1318787.60246   -981432.44346                  22847987.4064
        15.7504         14.2504
 02  7 11 18 56 45.0000000  0  8G 3G 9G14G15G17G18G21G31
  21609775.8984     357240.49147    263054.47747                  21609782.9104
        25.5004         25.7504
  23532908.5394    -631438.01342   -438209.59143                  23532920.6484
         4.5004          3.2504
  21334138.6884   -1909594.68847  -1418887.26946                  21334144.9454
        25.2504         25.5004
  21759544.7974    1534353.38247   1130930.76846                  21759552.7234
        23.0004         23.5004
  22490579.5864    1745880.31446   1286897.40646                  22490589.4224
        14.2504         15.7504
  21641202.9384    1325557.99347    981249.09046                  21641209.0664
        24.7504         23.2504
  20992100.6334     -42549.02847    -35462.88447                  20992107.1724
        27.0004         26.5004
  22842813.9924   -1345930.75446  -1002582.95846                  22842821.0984
        14.5004         13.7504
 02  7 11 18 57  0.0000000  0  8G 3G 9G14G15G17G18G21G31
  21611499.4224     366297.42347    270111.82146                  21611506.2814
        26.0004         25.5004
  23530585.8524    -643631.57942   -447711.00745                  23530590.2934
         3.7504          5.0004
  21326631.5864   -1949045.43747  -1449628.07947                  21326637.8554
        25.2504         25.7504
  21765696.0784    1566677.55047   1156118.40446                  21765703.6524
        23.2504         22.7504
  22497541.1094    1782469.03946   1315408.03446                  22497550.7934
        12.7504         14.7504
  21646343.9064    1352566.57247   1002294.71846                  21646349.9064
        27.5004         23.2504
  20991802.5784     -44116.08947    -36683.96747                  20991808.9064
        27.0004         26.2504
  22837664.9614   -1372992.93346  -1023670.35946                  22837671.0204
        15.7504         13.5004
 02  7 11 18 57 15.0000000  0  8G 3G 9G14G15G17G18G21G31
  21613239.8284     375443.32947    277238.48846                  21613246.8404
        25.5004         25.2504
  23528286.0634    -655736.61942
         4.5004
  21319135.7894   -1988436.03047  -1480322.02446                  21319141.8484
        25.2504         25.5004
  21771853.2424    1599033.28047   1181330.63146                  21771860.9224
        23.0004         22.0004
  22504509.6414    1819081.91346   1343937.47246                  22504518.8674
        13.5004         14.7504
  21651481.2734    1379567.34247   1023334.26046                  21651487.3674
        26.0004         23.2504
  20991504.2584     -45683.25847    -37905.14247                  20991510.0474
        27.2504         26.0004
  22832530.6954   -1399972.73146  -1044693.55346                  22832537.6024
        15.2504         13.2504
 02  7 11 18 57 30.0000000  0  7G 3G14G15G17G18G21G31
  21614997.3984     384680.77147    284436.48446                  21615004.1724
        25.2504         25.0004
  21311651.2894   -2027763.42147  -1510966.69946                  21311657.2664
        24.2504         25.2504
  21778017.6414    1631423.30547   1206569.57246                  21778024.9104
        24.5004         21.7504
  22511481.4384    1855721.52346   1372487.75146                  22511489.5274
        13.5004         14.2504
  21656618.5634    1406562.94147   1044369.77146                  21656624.8204
        26.0004         23.0004
  20991206.6334     -47248.07447    -39124.46746                  20991212.6564
        26.5004         25.5004
  22827412.7894   -1426867.28446  -1065650.32646                  22827419.8134
        15.5004         13.5004
 02  7 11 18 57 45.0000000  0  7G 3G14G15G17G18G21G31
  21616772.4224     394009.57747    291705.67646                  21616779.1024
        25.0004         25.0004
  21304179.8754   -2067027.56447  -1541562.10946                  21304185.9344
        24.2504         25.2504
  21784187.8134    1663847.37847   1231835.04446                  21784195.1294
        24.2504         21.7504
  22518460.0554    1892387.70446   1401058.72046                  22518468.0164
        15.0004         14.5004
  21661754.5944    1433552.99547   1065400.95946                  21661760.9104
        26.0004         23.5004
  20990909.1254     -48810.73547    -40342.12146                  20990915.4534
        26.2504         25.5004
  22822311.7344   -1453676.63046  -1086540.69646                  22822319.1094
        16.5004         14.0004
 02  7 11 18 58  0.0000000  0  7G 3G14G15G17G18G21G31
  21618564.4064     403427.22147    299044.07946                  21618571.2034
        24.5004         25.2504
  21296719.9384   -2106230.45747  -1572109.76747                  21296726.0904
        24.7504         25.7504
  21790363.2194    1696303.13147   1257125.22046                  21790371.1334
        22.2504         21.2504
  22525441.7194    1929078.02846   1429648.50146                  22525449.9734
        15.0004         13.7504
  21666888.6724    1460535.03447   1086425.90346                  21666894.8594
        25.0004         23.2504
  20990611.4144     -50373.52347    -41559.87846                  20990617.7894
        26.0004         25.5004
  22817225.4144   -1480402.72646  -1107366.18546                  22817232.9414
        16.5004         14.5004
 02  7 11 18 58 15.0000000  0  7G 3G14G15G17G18G21G31
  21620375.0704     412938.56547    306455.50247                  21620382.2584
        26.0004         25.7504
  21289272.5634   -2145366.81047  -1602605.59047                  21289278.7034
        24.7504         25.7504
  21796546.3674    1728795.50247   1282443.92746                  21796554.7854
        22.0004         21.2504
  22532429.6254    1965797.44046   1458260.98446                  22532437.4344
        14.5004         13.2504
  21672023.1334    1487514.08947   1107448.51946                  21672029.1334
        26.0004         23.0004
  20990314.9304     -51931.40947    -42773.81346                  20990321.4924
        26.0004         25.2504
  22812156.4534   -1507040.41846  -1128122.80046                  22812164.1334
        17.2504         15.5004
 02  7 11 18 58 30.0000000  0  7G 3G14G15G17G18G21G31
  21622202.1564     422542.86947    313939.35547                  21622209.7074
        25.2504         26.0004
  21281837.5164   -2184437.11347  -1633049.95047                  21281843.6914
        25.0004         26.2504
  21802736.5004    1761323.78347   1307790.59846                  21802744.9304
        22.0004         21.2504
  22539421.6564    2002545.31346   1486895.60046                  22539430.4614
        12.7504         13.2504
  21677157.1484    1514489.44947   1128468.24846                  21677162.8914
        27.2504         23.0004
  20990019.1804     -53485.15947    -43984.53847                  20990025.6844
        26.2504         25.7504
  22807104.0704   -1533590.07346  -1148810.83046                  22807111.4344
        16.7504         15.5004
 02  7 11 18 58 45.0000000  0  7G 3G14G15G17G18G21G31
  21624047.2974     432237.60047    321493.69247                  21624055.1764
        26.0004         26.0004
  21274414.5704   -2223443.53447  -1663444.53447                  21274420.8054
        24.7504         26.5004
  21808932.6644    1793885.58847   1333163.42346                  21808941.2114
        21.5004         21.0004
  22546419.6334    2039319.16946   1515550.50346                  22546428.8954
        13.2504         13.0004
  21682288.4924    1541458.64547   1149483.19146                  21682294.1414
        26.0004         22.5004
  20989724.0634     -55037.24347    -45193.96247                  20989730.2504
        26.5004         25.7504
  22802068.3364   -1560053.82446  -1169431.93046                  22802075.2664
        16.2504         15.0004
 02  7 11 18 59  0.0000000  0  8G 3G 9G14G15G17G18G21G31
  21625910.3834     442024.03547    329119.46947                  21625917.8754
        27.2504         26.0004
  23512652.9614      -3045.78553
         5.0004
  21267004.6334   -2262384.42247  -1693788.05947                  21267010.6454
        25.0004         26.2504
  21815135.4534    1826482.25047   1358563.37546                  21815143.9064
        21.2504         20.5004
  22553423.5164    2076120.39746   1544226.72446                  22553431.6994
        15.0004         13.5004
  21687419.4064    1568422.92847   1170494.28746                  21687425.3014
        25.0004         22.2504
  20989429.3834     -56586.14347    -46400.89347                  20989435.6054
        26.7504         25.7504
  22797049.3054   -1586430.18246  -1189984.91146                  22797056.6684
        16.5004         15.2504
 02  7 11 18 59 15.0000000  0  8G 3G 9G14G15G17G18G21G31
  21627791.3674     451904.88348    336818.81146                  21627797.8834
        29.0004         25.5004
  23510484.7814     -14406.91242
         3.7504
  21259607.8364   -2301256.53647  -1724077.99547                  21259613.8244
        25.0004         26.2504
  21821345.6024    1859116.54247   1383992.65446                  21821353.7274
        21.5004         20.2504
  22560431.7274    2112951.78446   1572926.44446                  22560439.8984
        14.0004         14.0004
  21692549.7734    1595385.02647   1191503.69746                  21692555.7274
        25.0004         22.2504
  20989135.8054     -58129.08047    -47603.18947                  20989142.1914
        27.0004         26.0004
  22792047.5314   -1612716.04446  -1210467.38746                  22792055.8444
        16.5004         15.2504
 02  7 11 18 59 30.0000000  0  8G 3G 9G14G15G17G18G21G31
  21629690.0084     461883.56448    344594.38846                  21629696.0664
        28.5004         25.2504
  23508345.8674     -25667.49341
         3.5004
  21252225.0234   -2340056.34847  -1754311.56747                  21252230.5554
        26.5004         26.2504
  21827563.6954    1891791.92447   1409453.94046                  21827570.7424
        22.0004         20.5004
  22567447.3914    2149816.76346   1601652.32146                  22567456.3014
        15.0004         15.0004
  21697681.4844    1622348.49147   1212514.17046                  21697687.4384
        26.2504         22.5004
  20988844.4064     -59662.67748    -48798.21247                  20988850.6524
        28.2504         26.2504
  22787063.0474   -1638907.72546  -1230876.48246                  22787070.3984
        15.7504         14.7504
 02  7 11 18 59 45.0000000  0  8G 3G 9G14G15G17G18G21G31
  21631606.9304     471958.56547    352445.02646                  21631612.7074
        27.7504         25.0004
  23506223.8284     -36828.98142
         3.7504
  21244854.8594   -2378784.98947  -1784489.68947                  21244860.3674
        26.0004         26.0004
  21833789.5084    1924507.04647   1434946.21246                  21833796.1764
        23.0004         20.5004
  22574469.2504    2186713.88846   1630403.23746                  22574478.7584
        15.0004         15.0004
  21702812.2584    1649311.53147   1233524.31346                  21702818.1764
        26.5004         22.5004
  20988553.7194     -61188.38347    -49987.07947                  20988560.4104
        27.5004         26.2504
  22782096.6414   -1665006.40946  -1251213.09846                  22782103.5594
        15.7504         14.7504
 02  7 11 19  0  0.0000000  0  7G 3G14G15G17G18G21G31
  21633541.0314     482128.22547    360369.43046                  21633547.3714
        25.2504         25.0004
  21237498.0084   -2417443.63147  -1814613.27047                  21237503.7854
        25.0004         26.5004
  21840022.4454    1957260.28147   1460468.17046                  21840029.3164
        23.5004         20.7504
  22581495.3284    2223641.43046   1659177.87946                  22581504.5554
        13.5004         14.5004
  21707942.9224    1676272.67247   1254532.96046                  21707948.7114
        26.7504         23.0004
  20988264.3524     -62707.75947    -51171.00547                  20988270.9264
        26.7504         26.2504
  22777147.4614   -1691013.34546  -1271478.21646                  22777154.9184
        15.0004         14.5004
 02  7 11 19  0 15.0000000  0  8G 3G 9G14G15G17G18G21G31
  21635494.9304     492395.21147    368369.67446                  21635501.6334
        25.2504         25.0004
  23502029.0314      -1455.40151
         3.0004
  21230155.0314   -2456029.24947  -1844679.93947                  21230160.9964
        25.0004         26.2504
  21846263.1644    1990054.44947   1486022.03346                  21846270.0474
        23.5004         21.2504
  22588527.8914    2260602.27945   1687978.51046                  22588538.2774
        11.7504         13.5004
  21713073.7194    1703234.78247   1275542.38046                  21713079.6254
        26.2504         22.7504
  20987976.8754     -64218.04247    -52347.85547                  20987982.9694
        26.7504         25.7504
  22772215.1884   -1716925.52346  -1291669.49446                  22772221.9494
        13.5004         13.7504
 02  7 11 19  0 30.0000000  0  8G 3G 9G14G15G17G18G21G31
  21637467.7584     502760.99747    376446.89146                  21637474.3914
        25.5004         25.2504
  23499961.2894     -12315.43642
         3.7504
  21222827.0234   -2494539.97147  -1874688.25447                  21222833.4454
        25.2504         27.0004
  21852511.4224    2022891.03447   1511608.95646                  21852518.9024
        22.7504         21.5004
  22595570.3364    2297597.97746   1716806.25446                  22595579.6564
        13.2504         13.2504
  21718204.1254    1730199.19047   1296553.59246                  21718210.2894
        24.7504         22.7504
  20987691.3594     -65717.70447    -53516.43246                  20987697.5004
        26.2504         25.5004
  22767303.5784   -1742741.20446  -1311785.58546                  22767311.5744
        14.5004         14.0004
 02  7 11 19  0 45.0000000  0  8G 3G 9G14G15G17G18G21G31
  21639459.6414     513226.96347    384602.18046                  21639466.6054
        26.0004         25.0004
  23497920.7344     -23071.04044
         6.5004
  21215513.2424   -2532974.10547  -1904636.90347                  21215519.5474
        25.5004         27.2504
  21858768.3524    2055771.43647   1537230.01146                  21858776.0314
        21.7504         20.7504
  22602615.9144    2334629.99846   1745662.30646                  22602625.1764
        12.5004         13.5004
  21723337.3364    1757167.29947   1317567.68446                  21723343.6414
        26.7504         23.0004
  20987408.7584     -67205.23747    -54675.55046                  20987415.0044
        26.7504         25.5004
  22762410.7034   -1768458.64146  -1331825.11446                  22762418.6054
        14.7504         14.2504
 02  7 11 19  1  0.0000000  0  8G 3G 9G14G15G17G18G21G31
  21641469.7424     523791.67247    392834.39246                  21641476.8834
        24.7504         25.0004
  23495888.7274     -33723.41843
         6.0004
  21208214.4454   -2571332.75447  -1934526.72447                  21208220.5634
        26.7504         27.2504
  21865033.2664    2088694.27747   1562884.13646                  21865041.3554
        21.0004         19.7504
  22609669.3134    2371696.86346   1774545.52146                  22609678.4694
        12.5004         13.2504
  21728470.3834    1784137.68548   1338583.56146                  21728476.2544
        28.7504         22.7504
  20987127.6174     -68681.88147    -55826.17447                  20987133.6764
        27.0004         26.0004
  22757534.5944   -1794078.94446  -1351788.99946                  22757542.1914
        14.7504         14.0004
 02  7 11 19  1 15.0000000  0  8G 3G 9G14G15G17G18G21G31
  21643499.1484     534457.32247    401145.27846                  21643506.5124
        24.2504         24.7504
  23493882.4924     -44269.89144         0.14755                  23493894.4964
         6.2504          5.0004
  21200929.5634   -2609613.37847  -1964355.74847                  21200935.3164
        26.5004         27.0004
  21871306.2664    2121661.82547   1588573.09946                  21871314.2504
        21.0004         20.0004
  22616730.3054    2408800.97046   1803457.72146                  22616739.3914
        13.5004         14.0004
  21733602.0944    1811112.60547   1359602.94846                  21733607.8244
        25.0004         22.7504
  20986849.2974     -70145.23047    -56966.43847                  20986855.4384
        27.5004         26.7504
  22752677.4144   -1819599.62646  -1371675.21446                  22752684.6484
        14.0004         13.7504
 02  7 11 19  1 30.0000000  0  8G 3G 9G14G15G17G18G21G31
  21645546.3524     545218.07447    409530.26546                  21645554.0434
        23.5004         24.7504
  23491894.2814     -54716.02643     -8139.69743                  23491916.0274
         5.7504          3.2504
  21193658.3364   -2647821.28847  -1994128.09647                  21193664.3364
        25.2504         26.5004
  21877587.2344    2154668.49947   1614292.55446                  21877594.9614
        21.2504         20.5004
  22623797.1804    2445936.52546   1832394.43446                  22623806.0904
        15.0004         14.5004
  21738734.5554    1838086.47447   1380621.51546                  21738740.7894
        24.0004         22.5004
  20986572.5634     -71601.14948    -58100.91247                  20986578.7154
        28.2504         26.7504
  22747840.8204   -1845026.06846  -1391487.99046                  22747848.3244
        16.5004         14.5004
 02  7 11 19  1 45.0000000  0  8G 3G 9G14G15G17G18G21G31
  21647614.0234     556076.44047    417991.31146                  21647621.3634
        26.2504         24.7504
  23489928.0784     -65058.98344    -16199.11243                  23489943.6564
         7.0004          3.0004
  21186401.1414   -2685953.67547  -2023841.61047                  21186407.2344
        23.7504         26.5004
  21883877.1724    2187716.89347   1640044.50746                  21883884.1484
        23.0004         20.5004
  22630871.1094    2483106.04746   1861357.64746                  22630880.1484
        15.5004         15.2504
  21743868.6644    1865061.72647   1401641.18346                  21743874.8054
        25.2504         22.7504
  20986297.2034     -73047.33147    -59227.80947                  20986303.6024
        27.2504         26.2504
  22743020.9694   -1870355.48046  -1411225.20746                  22743028.0274
        16.7504         14.5004
 02  7 11 19  2  0.0000000  0  8G 3G 9G14G15G17G18G21G31
  21649698.9774     567035.95547    426531.17646                  21649705.9184
        25.5004         24.7504
  23487976.4774     -75294.90143    -24175.15044                  23487989.7344
         5.2504          3.7504
  21179160.6484   -2724006.60547  -2053493.21747                  21179166.7304
        25.0004         26.7504
  21890175.1094    2220810.56447   1665831.74446                  21890182.0984
        24.7504         21.5004
  22637951.4924    2520313.19446   1890350.15846                  22637961.0234
        15.2504         15.2504
  21749002.7194    1892041.81547   1422664.62546                  21749008.6844
        26.5004         22.7504
  20986024.1254     -74479.76947    -60343.99347                  20986030.8754
        25.7504         25.7504
  22738218.9534   -1895584.01146  -1430883.79046                  22738225.6214
        14.7504         14.2504
 02  7 11 19  2 15.0000000  0  8G 3G 9G14G15G17G18G21G31
  21651803.8984     578095.10247    435148.68646                  21651810.7704
        26.0004         24.7504
  23486048.0394     -85424.99042    -32068.63843                  23486059.6334
         4.5004          2.7504
  21171935.0394   -2761981.18447  -2083083.75747                  21171941.0984
        26.7504         27.0004
  21896480.7894    2253948.18847   1691653.22246                  21896488.5744
        23.5004         22.0004
  22645038.7114    2557556.64646   1919370.94746                  22645048.5234
        14.5004         15.2504
  21754137.2344    1919025.27347   1443690.65746                  21754143.0354
        26.0004         22.7504
  20985753.9454     -75899.90447    -61450.58747                  20985760.8754
        26.2504         26.2504
  22733436.8284   -1920712.77946  -1450464.62246                  22733443.4264
        14.2504         14.0004
 02  7 11 19  2 30.0000000  0  8G 3G 9G14G15G17G18G21G31
  21653927.2424     589256.78447    443846.09046                  21653933.7464
        24.7504         24.5004
  23484143.7814     -95446.01543    -39877.39044                  23484152.7274
         5.2504          4.0004
  21164724.1174   -2799874.20747  -2112610.75447                  21164729.7424
        27.2504         27.5004
  21902795.3674    2287132.54947   1717511.10746                  21902803.4454
        23.2504         22.0004
  22652132.9454    2594839.26846   1948422.27446                  22652143.1804
        13.7504         14.5004
  21759274.1024    1946015.13647   1464721.69646                  21759279.6914
        27.2504         22.7504
  20985487.4774     -77304.85948    -62545.36247                  20985493.9924
        28.5004         26.7504
  22728674.7194   -1945738.51246  -1469965.16946                  22728682.0474
        15.5004         14.7504
 02  7 11 19  2 45.0000000  0  8G 3G 9G14G15G17G18G21G31
  21656069.6564     600518.20347    452621.21146                  21656076.3714
        23.5004         24.7504
  23482257.5944    -105360.40843    -47602.83045                  23482272.6454
         5.5004          4.7504
  21157528.6724   -2837688.25648  -2142076.21347                  21157533.6764
        28.2504         28.0004
  21909118.1884    2320361.00647   1743403.39146                  21909126.3594
        22.5004         22.2504
  22659233.6024    2632158.33646   1977502.02146                  22659243.3554
        12.0004         13.2504
  21764410.1414    1973008.53947   1485755.49846                  21764415.8594
        26.2504         22.7504
  20985222.3444     -78697.35948    -63630.42547                  20985228.5784
        29.0004         27.2504
  22723932.1724   -1970663.82746  -1489387.49246                  22723938.7584
        16.2504         14.7504
 02  7 11 19  3  0.0000000  0  8G 3G 9G14G15G17G18G21G31
  21658232.2424     611879.76247    461474.36646                  21658239.3014
        25.0004         24.7504
  23480387.6954    -115167.59642    -55244.76344                  23480402.4184
         4.5004          4.2504
  21150348.1254   -2875422.41847  -2171479.41647                  21150353.3984
        27.7504         27.5004
  21915450.5394    2353634.13547   1769330.47146                  21915458.1024
        24.0004         21.7504
  22666343.4064    2669514.26046   2006610.44346                  22666352.3984
        13.2504         12.7504
  21769547.6094    2000006.01947   1506792.48846                  21769553.0474
        26.5004         22.5004
  20984959.6644     -80076.98048    -64705.45347                  20984965.9344
        28.2504         26.7504
  22719207.6024   -1995487.83946  -1508730.84046                  22719215.1884
        15.7504         15.2504
 02  7 11 19  3 15.0000000  0  8G 3G 9G14G15G17G18G21G31
  21660414.1334     623342.15447    470406.08546                  21660421.2034
        26.5004         25.0004
  23478545.9454    -124866.42342    -62802.31945                  23478561.3364
         4.5004          4.5004
  21143181.5314   -2913075.54347  -2200819.47447                  21143187.4024
        25.5004         27.2504
  21921790.8364    2386952.67747   1795292.94146                  21921798.6564
        23.2504         21.5004
  22673459.5394    2706907.98046   2035748.34846                  22673467.1954
        13.7504         13.0004
  21774685.9454    2027008.42647   1527833.32246                  21774691.6294
        25.5004         22.0004
  20984699.3134     -81442.65247    -65769.61547                  20984705.6294
        27.2504         26.2504
  22714503.6954   -2020209.59746  -1527994.52446                  22714511.9614
        16.0004         15.5004
 02  7 11 19  3 30.0000000  0  8G 3G 9G14G15G17G18G21G31
  21662615.2194     634905.33747    479416.33846                  21662622.2194
        27.2504         25.0004
  23476719.7974    -134456.51341    -70275.17044                  23476729.4924
         3.2504          3.7504
  21136032.3204   -2950647.35947  -2230096.18247                  21136038.5204
        26.7504         27.5004
  21928139.4924    2420316.67447   1821290.81946                  21928146.9024
        21.7504         20.5004
  22680582.7894    2744339.60346   2064915.75646                  22680592.3674
        13.0004         13.7504
  21779825.5234    2054015.74347   1548877.97146                  21779831.3834
        25.2504         21.5004
  20984442.1884     -82794.36347    -66822.90047                  20984448.3874
        27.7504         26.2504
  22709817.7814   -2044828.71046  -1547178.23446                  22709825.8484
        14.5004         14.7504
 02  7 11 19  3 45.0000000  0  8G 3G 9G14G15G17G18G21G31
  21664834.3444     646570.94847    488506.41646                  21664841.4494
        26.0004         25.0004
  23474910.9304                      -5042.01751
         2.5004
  21128898.7344   -2988135.74047  -2259307.87647                  21128904.5824
        26.7504         27.5004
  21934496.8524    2453727.86947   1847325.46646                  21934504.7774
        20.2504         20.5004
  22687713.0554    2781810.70346   2094113.89546                  22687722.7624
        14.0004         14.5004
  21784965.9064    2081029.57347   1569927.67946                  21784971.7894
        24.5004         21.0004
  20984187.9774     -84130.12447    -67863.76347                  20984194.1174
        27.2504         26.2504
  22705153.2584   -2069343.23846  -1566280.45646                  22705161.3594
        14.2504         14.5004
 02  7 11 19  4  0.0000000  0  8G 3G 9G14G15G17G18G21G31
  21667073.1884     658335.57347    497673.64246                  21667080.1994
        26.0004         24.5004
  23473133.9774                      -3112.23151
         2.7504
  21121781.2194   -3025544.04548  -2288457.17947                  21121786.3054
        29.2504         28.0004
  21940862.6644    2487182.68247   1873394.11146                  21940870.6254
        20.0004         20.5004
  22694849.8054    2819317.82146   2123340.17146                  22694860.3324
        13.0004         14.2504
  21790106.6094    2108046.49747   1590979.80546                  21790112.5044
        23.0004         20.2504
  20983936.3364     -85453.60048    -68895.05047                  20983942.5944
        28.0004         26.2504
  22700508.3054   -2093756.42246  -1585303.68646                  22700516.1724
        15.7504         15.0004
 02  7 11 19  4 15.0000000  0  7G 3G14G15G17G18G21G31
  21669331.5704     670202.11647    506920.27846                  21669338.3554
        26.2504         24.5004
  21114678.9064   -3062868.82948  -2317541.39147                  21114683.3244
        30.2504         28.2504
  21947238.3834    2520684.24147   1899499.18746                  21947246.5784
        20.7504         20.2504
  22701994.5784    2856863.91146   2152596.78846                  22702004.5204
        13.0004         14.0004
  21795249.4614    2135069.48947   1612036.67046                  21795255.5204
        24.2504         20.7504
  20983687.5004     -86761.71348    -69914.35947                  20983693.5824
        28.2504         26.2504
  22695882.7034   -2118065.00946  -1604245.45246                  22695889.6804
        16.5004         14.7504
 02  7 11 19  4 30.0000000  0  7G 3G14G15G17G18G21G31
  21671608.6174     682168.22647    516244.50946                  21671615.5824
        26.7504         24.5004
  21107590.6884   -3100111.97448  -2346561.97047                  21107595.6804
        28.5004         28.5004
  21953621.4774    2554230.41546   1925639.02446                  21953629.3794
        19.2504         19.2504
  22709146.0944    2894446.96046   2181882.19546                  22709155.8014
        12.7504         13.2504
  21800392.5164    2162096.42047   1633096.60846                  21800398.4694
        25.0004         21.0004
  20983441.2114     -88056.55048    -70923.32847                  20983447.3524
        28.2504         26.5004
  22691276.6954   -2142270.87546  -1623107.14346                  22691283.3054
        17.2504         15.5004
 02  7 11 19  4 45.0000000  0  7G 3G14G15G17G18G21G31
  21673904.2194     694232.24847    525645.03146                  21673910.5824
        26.5004         24.5004
  21100518.3594   -3137274.76947  -2375519.95947                  21100523.9964
        27.2504         28.0004
  21960014.1804    2587819.59047   1951812.36746                  21960021.9184
        21.0004         19.5004
  22716305.3524    2932065.36646   2211195.17546                  22716314.8954
        13.0004         13.0004
  21805536.0554    2189125.65247   1654158.32846                  21805541.4104
        26.5004         21.7504
  20983197.1094     -89339.84148    -71923.30347                  20983203.5904
        28.5004         26.5004
  22686688.7344   -2166375.24746  -1641889.75046                  22686694.6524
        16.0004         14.5004
 02  7 11 19  5  0.0000000  0  7G 3G14G15G17G18G21G31
  21676218.6564     706395.64147    535122.97146                  21676225.0084
        25.7504         24.2504
  21093461.9144   -3174355.47247  -2404413.97947                  21093468.0664
        27.0004         28.0004
  21966414.6724    2621453.35547   1978020.43846                  21966422.8794
        21.5004         20.0004
  22723471.9534    2969720.61546   2240536.85046                  22723479.9734
        14.0004         12.7504
  21810680.1094    2216158.62147   1675222.97446                  21810685.2664
        26.2504         22.2504
  20982955.6564     -90609.81548    -72912.90147                  20982962.0084
        28.7504         26.5004
  22682120.9844   -2190376.47246  -1660591.98946                  22682127.6764
        14.7504         13.7504
 02  7 11 19  5 15.0000000  0  7G 3G14G15G17G18G21G31
  21678551.5554     718657.18547    544677.40746                  21678558.0234
        24.7504         23.7504
  21086421.1954   -3211354.80647  -2433244.59747                  21086427.2894
        26.7504         27.7504
  21972823.3284    2655130.65747   2004262.45146                  21972831.3484
        22.0004         20.2504
  22730643.5474    3007411.65546   2269906.41346                  22730652.1054
        13.0004         13.2504
  21815825.0704    2243194.27547   1696289.71346                  21815830.4264
        26.2504         22.0004
  20982715.6174     -91867.63447    -73893.02747                  20982722.1454
        27.5004         26.2504
  22677573.9694   -2214275.30146  -1679214.43246                  22677580.1214
        16.0004         14.2504
 02  7 11 19  5 30.0000000  0  7G 3G14G15G17G18G21G31
  21680904.1334     731019.90047    554310.67746                  21680910.6604
        24.5004         24.0004
  21079397.1254   -3248269.32047  -2462009.12347                  21079402.6564
        27.5004         28.0004
  21979240.6564    2688854.61847   2030540.80046                  21979248.3594
        21.7504         20.2504
  22737823.5554    3045141.82446   2299306.47446                  22737833.3094
        12.5004         12.7504
  21820970.3364    2270235.82147   1717361.02346                  21820976.6764
        24.0004         21.7504
  20982479.2274     -93110.02047    -74861.12447                  20982485.6484
        26.7504         25.7504
  22673045.9384   -2238068.36646  -1697754.45646                  22673053.8874
        16.0004         15.5004
 02  7 11 19  5 45.0000000  0  8G 3G 9G14G15G17G18G21G31
  21683275.1884     743481.15547    564020.72946                  21683281.9964
        24.2504         24.0004
  23461228.4614      -4576.46051
         3.5004
  21072387.9064   -3285101.29147  -2490709.32847                  21072393.2974
        27.7504         28.0004
  21985667.2814    2722622.73247   2056853.58146                  21985674.9144
        22.5004         20.2504
  22745009.9384    3082908.19645   2328734.72346                  22745019.8914
        11.7504         13.2504
  21826116.7424    2297280.61747   1738434.86346                  21826123.2464
        23.5004         22.2504
  20982245.5394     -94339.42247    -75819.09847                  20982251.7734
        27.0004         25.7504
  22668538.3524   -2261757.86546  -1716213.77346                  22668546.9454
        17.0004         16.0004
 02  7 11 19  6  0.0000000  0  8G 3G 9G14G15G17G18G21G31
  21685666.0784     756040.39547    573807.14146                  21685672.9224
        26.0004         24.5004
  23459612.9454     -13074.07042
         4.5004
  21065394.9614   -3321851.02347  -2519345.44347                  21065400.2584
        27.5004         28.0004
  21992100.0864    2756434.44547   2083200.31746                  21992108.3634
        20.7504         20.2504
  22752202.9924    3120710.41845   2358190.94546                  22752214.0234
        11.7504         13.5004
  21831264.3054    2324328.10347   1759510.81046                  21831270.4104
        24.7504         22.0004
  20982014.1644     -95556.39147    -76767.39347                  20982020.3874
        27.2504         25.7504
  22664049.8444   -2285344.25146  -1734592.76546                  22664057.2424
        17.5004         16.0004
 02  7 11 19  6 15.0000000  0  8G 3G 9G14G15G17G18G21G31
  21688074.3204     768696.03847    583668.64646                  21688081.4844
        25.5004         25.0004
  23458013.1804     -21463.63141
         3.2504
  21058417.2194   -3358519.70448  -2547918.40547                  21058422.5164
        28.0004         27.5004
  21998543.4454    2790288.30747   2109579.91146                  21998551.8634
        22.2504         20.5004
  22759404.9064    3158547.05546   2387673.96746                  22759414.4144
        14.0004         13.5004
  21836411.7894    2351376.82847   1780587.72546                  21836417.8244
        25.0004         22.0004
  20981784.2734     -96762.37247    -77707.12947                  20981790.6954
        26.5004         25.7504
  22659581.0554   -2308828.69446  -1752892.34046                  22659588.7584
        17.0004         16.2504
 02  7 11 19  6 30.0000000  0  8G 3G 9G14G15G17G18G21G31
  21690500.1954     781448.03747    593605.25246                  21690507.7814
        24.2504         24.7504
  23456440.8754     -29745.16942
         4.5004
  21051454.7894   -3395107.01647  -2576427.95947                  21051460.1684
        27.7504         27.5004
  22004993.6094    2824184.28747   2135992.32546                  22005001.5704
        22.7504         20.5004
  22766611.6804    3196418.14446   2417183.81546                  22766620.8014
        13.2504         13.2504
  21841557.9064    2378426.66047   1801665.49446                  21841564.2114
        21.7504         21.7504
  20981556.5004     -97957.33747    -78638.27047                  20981563.1334
        26.0004         26.2504
  22655132.1414   -2332211.06546  -1771112.33746                  22655140.2664
        17.7504         16.0004
 02  7 11 19  6 45.0000000  0  8G 3G 9G14G15G17G18G21G31
  21692945.6414     794300.44047    603620.11546                  21692953.4144
        23.5004         24.7504
  23454884.9224     -37914.28242
         4.5004
  21044508.2194   -3431608.57947  -2604870.71247                  21044513.4694
        26.5004         27.2504
  22011452.7344    2858126.45947   2162440.71446                  22011460.7894
        22.7504         21.0004
  22773825.0004    3234327.51646   2446723.47646                  22773833.6414
        13.0004         13.0004
  21846706.7504    2405481.76147   1822747.38046                  21846713.1254
        22.0004         21.5004
  20981332.4774     -99137.18147    -79557.63047                  20981338.9804
        26.7504         26.2504
  22650702.1804   -2355486.85346  -1789249.29846                  22650709.7194
        16.7504         16.0004
 02  7 11 19  7  0.0000000  0  8G 3G 9G14G15G17G18G21G31
  21695410.5784     807250.25447    613710.85946                  21695418.1414
        25.0004         24.7504
  23453355.6564     -45973.68644
         6.5004
  21037577.7974   -3468026.97247  -2633248.64947                  21037583.5514
        25.5004         26.7504
  22017919.6644    2892112.01247   2188922.91546                  22017927.6134
        21.7504         20.5004
  22781046.1174    3272272.47045   2476290.89446                  22781054.9454
        11.5004         12.2504
  21851855.7114    2432539.17047   1843831.04946                  21851862.4024
        22.7504         21.2504
  20981110.8524    -100304.79748    -80467.46047                  20981116.9224
        28.7504         26.7504
  22646292.7424   -2378658.64146  -1807305.20746                  22646301.4654
        17.2504         16.2504
 02  7 11 19  7 15.0000000  0  8G 3G 9G14G15G17G18G21G31
  21697893.3284     820298.07647    623877.96246                  21697900.7034
        24.7504         24.7504
  23451839.9614     -53922.39643
         5.5004
  21030663.9224   -3504361.25747  -2661561.05447                  21030669.5594
        26.2504         27.0004
  22024394.8054    2926141.65747   2215439.48746                  22024403.0234
        20.5004         20.2504
  22788271.2114    3310253.77345   2505886.62346                  22788280.7074
        10.0004         12.2504
  21857005.9534    2459599.62247   1864917.09246                  21857012.1994
        24.0004         21.5004
  20980890.7734    -101459.31348    -81367.09447                  20980896.7974
        28.2504         26.2504
  22641902.7664   -2401725.64146  -1825279.49246                  22641910.3524
        16.7504         15.7504
 02  7 11 19  7 30.0000000  0  8G 3G 9G14G15G17G18G21G31
  21700394.7664     833442.27347    634120.17646                  21700401.8364
        25.2504         24.5004
  23450347.6334     -61761.59143
         5.5004
  21023765.5234   -3540612.54447  -2689808.77347                  21023770.7504
        26.7504         27.2504
  22030878.9064    2960213.95347   2241989.28346                  22030887.1134
        21.0004         19.7504
  22795506.9844    3348269.78345   2535509.42446                  22795517.0784
        11.5004         12.7504
  21862155.2974    2486661.68847   1886004.39146                  21862161.2854
        24.2504         21.2504
  20980672.8674    -102602.28948    -82257.72147                  20980678.7734
        28.0004         26.5004
  22637533.6174   -2424689.09746  -1843173.05546                  22637540.0634
        16.7504         15.7504
 02  7 11 19  7 45.0000000  0  8G 3G 9G14G15G17G18G21G31
  21702915.3834     846686.12047    644440.04146                  21702922.1684
        25.2504         24.2504
  23448877.6884     -69487.84643     -2798.39355                  23448888.7774
         5.7504          6.2504
  21016884.1334   -3576777.25747  -2717989.03747                  21016889.4654
        26.7504         27.0004
  22037371.5004    2994332.24347   2268574.93446                  22037379.7304
        20.5004         19.7504
  22802748.8914    3386324.05346   2565162.03546                  22802758.9494
        13.5004         13.2504
  21867306.3134    2513728.71447   1907095.55646                  21867311.7384
        25.5004         21.2504
  20980458.4304    -103730.15748    -83136.57647                  20980464.6054
        28.0004         26.7504
  22633184.4774   -2447545.32546  -1860983.08546                  22633191.0514
        16.7504         15.0004
 02  7 11 19  8  0.0000000  0  8G 3G 9G14G15G17G18G21G31
  21705453.2734     860024.57347    654833.62146                  21705460.5554
        24.5004         24.0004
  23447426.0394     -77105.83343     -8734.55845                  23447435.4884
         5.7504          5.7504
  21010016.5634   -3612860.02447  -2746105.44147                  21010022.2344
        24.7504         27.0004
  22043872.0394    3028491.56547   2295192.55246                  22043879.7424
        21.2504         19.7504
  22809996.3204    3424411.58746   2594840.54346                  22810006.4494
        13.0004         14.2504
  21872456.9304    2540795.75847   1928186.74546                  21872462.8484
        25.2504         21.7504
  20980245.8364    -104847.90348    -84007.55847                  20980252.0824
        28.0004         26.7504
  22628853.3134   -2470299.00646  -1878713.21446                  22628860.2894
        15.2504         14.7504
 02  7 11 19  8 15.0000000  0  8G 3G 9G14G15G17G18G21G31
  21708009.8364     873459.28547    665302.20946                  21708017.5984
        23.7504         23.7504
  23445998.2894     -84613.52544    -14584.59745                  23446003.0594
         6.5004          5.7504
  21003166.7344   -3648858.74347  -2774156.36447                  21003172.3364
        25.5004         27.0004
  22050380.0234    3062693.82247   2321843.61746                  22050388.1374
        20.0004         19.7504
  22817251.1174    3462534.02746   2624546.25146                  22817261.1174
        12.7504         14.2504
  21877607.1334    2567864.52947   1949279.28846                  21877613.2974
        23.7504         21.2504
  20980035.1414    -105953.69847    -84869.22247                  20980041.5274
        27.2504         26.5004
  22624544.3914   -2492948.09746  -1896361.85046                  22624551.2854
        16.7504         15.5004
 02  7 11 19  8 30.0000000  0  8G 3G 9G14G15G17G18G21G31
  21710584.6414     886989.53447    675845.25246                  21710592.2854
        23.7504         23.5004
  23444592.1484     -92011.34345    -20349.19245                  23444598.0314
         7.5004          5.5004
  20996331.9774   -3684773.78947  -2802142.07747                  20996337.7894
        25.0004         27.0004
  22056896.8444    3096938.24647   2348527.53846                  22056904.5594
        20.2504         19.0004
  22824512.2274    3500690.96046   2654278.83346                  22824521.8164
        13.5004         14.7504
  21882758.6954    2594934.35747   1970372.65346                  21882764.7074
        24.2504         21.2504
  20979827.1024    -107048.03547    -85721.95847                  20979833.6294
        27.0004         26.2504
  22620253.9614   -2515493.00146  -1913929.31646                  22620262.0394
        16.0004         16.0004
 02  7 11 19  8 45.0000000  0  8G 3G 9G14G15G17G18G21G31
  21713178.0394     900616.58947    686463.69946                  21713184.9804
        24.7504         23.0004
  23443204.6414     -99297.64844    -26026.83545                  23443211.1214
         7.0004          7.0004
  20989513.3134   -3720603.62547  -2830061.40347                  20989519.3244
        24.2504         26.7504
  22063421.7664    3131226.26647   2375245.43746                  22063429.5514
        20.5004         19.2504
  22831780.7664    3538883.54946   2684039.21946                  22831789.8054
        14.5004         14.0004
  21887910.9384    2622006.63647   1991467.90346                  21887917.0784
        25.5004         21.0004
  20979620.9534    -108129.62747    -86564.76047                  20979627.4224
        27.0004         26.0004
  22615984.2344   -2537932.24446  -1931414.42146                  22615992.3954
        17.0004         16.0004
 02  7 11 19  9  0.0000000  0  8G 3G 9G14G15G17G18G21G31
  21715788.8674     914336.50947    697154.52646                  21715795.5944
        24.2504         23.2504
  23441837.8204    -106476.17645    -31620.46545                  23441847.1054
         7.5004          8.0004
  20982710.9614   -3756351.81747  -2857917.10247                  20982717.1024
        24.7504         27.2504
  22069954.1644    3165553.92246   2401994.21046                  22069962.3484
        19.7504         18.7504
  22839054.4694    3577107.94846   2713824.41146                  22839063.4734
        14.0004         13.7504
  21893061.9844    2649077.39347   2012561.97846                  21893067.6094
        24.7504         20.7504
  20979416.9774    -109202.25847    -87400.58347                  20979423.9184
        26.5004         26.0004
  22611733.6954   -2560269.40246  -1948819.98046                  22611741.4104
        17.2504         15.7504
 02  7 11 19  9 15.0000000  0  8G 3G 9G14G15G17G18G21G31
  21718417.7424     928153.36447    707920.88946                  21718424.1524
        23.7504         23.2504
  23440492.0704    -113542.35644    -37126.59045                  23440503.8524
         6.5004          7.5004
  20975925.5554   -3792013.80447  -2885705.63847                  20975931.4614
        26.5004         27.5004
  22076494.1804    3199925.50946   2428777.22246                  22076502.1884
        19.7504         18.5004
  22846335.4144    3615368.52846   2743637.78546                  22846344.4884
        14.0004         12.7504
  21898213.2274    2676150.91147   2033658.22946                  21898219.3674
        23.5004         20.5004
  20979215.3914    -110261.67047    -88226.10347                  20979221.8594
        26.7504         26.2504
  22607503.2274   -2582500.00146  -1966142.49746                  22607509.6844
        17.5004         15.0004
 02  7 11 19  9 30.0000000  0  8G 3G 9G14G15G17G18G21G31
  21721066.3914     942068.18047    718763.59046                  21721073.1994
        25.0004         23.5004
  23439172.2114    -120494.94245    -42544.22845                  23439182.0474
         9.2504          7.7504
  20969156.0314   -3827588.25747  -2913425.97247                  20969161.4804
        27.0004         28.0004
  22083043.5314    3234342.08546   2455595.28046                  22083051.7034
        19.2504         18.5004
  22853622.2894    3653666.22546   2773480.09346                  22853631.9024
        12.5004         12.7504
  21903365.9384    2703228.42147   2054757.57246                  21903372.3014
        23.2504         20.5004
  20979016.6954    -111306.88247    -89040.56547                  20979022.9064
        27.5004         26.0004
  22603293.1334   -2604622.71246  -1983380.97846                  22603299.8594
        16.7504         15.2504
 02  7 11 19  9 45.0000000  0  8G 3G 9G14G15G17G18G21G31
  21723731.8834     956080.39647    729682.18146                  21723738.8594
        23.7504         23.7504
  23437868.0474    -127334.17545    -47873.45945                  23437878.5394
         7.7504          7.0004
  20962403.3594   -3863075.28447  -2941078.16247                  20962408.4224
        27.7504         28.2504
  22089601.9694    3268803.30347   2482448.13846                  22089609.7544
        20.0004         18.2504
  22860916.8364    3692000.63646   2803350.95546                  22860926.1914
        12.2504         12.7504
  21908520.7034    2730309.34247   2075859.55746                  21908526.4694
        26.2504         21.0004
  20978820.4144    -112338.05347    -89844.08647                  20978826.6604
        27.0004         25.7504
  22599104.0314   -2626637.67546  -2000535.45746                  22599110.9844
        18.0004         15.7504
 02  7 11 19 10  0.0000000  0  8G 3G 9G14G15G17G18G21G31
  21726416.4144     970185.94347    740673.50546                  21726423.5434
        24.2504         23.7504
  23436587.0944    -134063.67944    -53117.30745                  23436596.4844
         6.5004          7.5004
  20955665.9064   -3898478.43147  -2968665.00847                  20955671.3794
        26.7504         28.2504
  22096166.8204    3303305.19647   2509332.67846                  22096175.0864
        20.0004         18.7504
  22868219.1024    3730367.93646   2833247.48146                  22868228.1884
        13.0004         12.7504
  21913673.5554    2757389.75047   2096961.16046                  21913679.1804
        25.5004         21.2504
  20978626.1254    -113359.10547    -90639.71347                  20978632.4774
        26.7504         26.0004
  22594934.4224   -2648548.59346  -2017608.86346                  22594941.2424
        18.0004         15.7504
 02  7 11 19 10 15.0000000  0  8G 3G 9G14G15G17G18G21G31
  21729117.9844     984387.45347    751739.60046                  21729125.5824
        22.7504         24.0004
  23435329.1644    -140680.66544    -58273.48345                  23435337.2074
         6.5004          7.5004
  20948945.1254   -3933794.95847  -2996184.36247                  20948950.8324
        26.5004         28.0004
  22102741.9064    3337850.42347   2536250.99246                  22102749.5634
        22.2504         18.7504
  22875526.8134    3768770.64246   2863171.58946                  22875536.2384
        13.2504         13.0004
  21918826.8984    2784472.34547   2118064.46046                  21918833.0634
        24.5004         21.2504
  20978434.6094    -114367.23447    -91425.27047                  20978440.6804
        27.2504         25.7504
  22590785.0784   -2670352.66946  -2034599.05746                  22590791.3364
        17.0004         15.2504
 02  7 11 19 10 30.0000000  0  8G 3G 9G14G15G17G18G21G31
  21731838.4384     998682.64247    762878.69446                  21731846.0704
        22.7504         23.7504
  23434090.7974    -147187.16644    -63343.44745                  23434101.1954
         6.5004          7.7504
  20942240.9844   -3969026.75947  -3023637.69447                  20942246.5164
        26.7504         28.0004
  22109322.7974    3372436.83047   2563201.39146                  22109330.2074
        21.7504         19.5004
  22882840.8834    3807206.61146   2893121.59546                  22882850.7544
        13.2504         13.0004
  21923980.8914    2811554.81247   2139167.67246                  21923986.7504
        25.0004         21.5004
  20978244.2344    -115364.55247    -92202.40547                  20978250.2814
        26.7504         25.7504
  22586655.9144   -2692051.84846  -2051507.49746                  22586662.4304
        17.5004         15.5004
 02  7 11 19 10 45.0000000  0  8G 3G 9G14G15G17G18G21G31
  21734577.3364    1013073.13847    774092.04546                  21734584.5824
        24.0004         23.2504
  23432873.5084    -153581.16943    -68325.71245                  23432884.5164
         5.7504          7.2504
  20935553.1094   -4004171.84647  -3051023.44747                  20935558.8054
        27.2504         28.0004
  22115912.5164    3407066.18147   2590185.24046                  22115919.6804
        21.0004         19.0004
  22890160.8134    3845677.60246   2923098.94846                  22890170.8364
        12.5004         12.2504
  21929134.5234    2838638.92047   2160272.15946                  21929140.8874
        23.5004         21.0004
  20978057.0234    -116349.35147    -92969.77147                  20978063.0594
        27.2504         26.0004
  22582547.4384   -2713644.11546  -2068332.61346                  22582554.4614
        18.0004         16.2504
 02  7 11 19 11  0.0000000  0  8G 3G 9G14G15G17G18G21G31
  21737333.3054    1027555.42747    785376.92746                  21737340.3524
        24.2504         23.2504
  23431677.4924    -159865.89743    -73222.97745                  23431688.2664
         6.0004          7.2504
  20928880.6804   -4039233.17647  -3078343.93147                  20928886.2464
        26.5004         28.0004
  22122509.8364    3441735.03247   2617199.88246                  22122517.5634
        20.5004         18.7504
  22897488.5474    3884180.14446   2953100.83646                  22897497.3754
        12.5004         12.2504
  21934287.8134    2865721.37647   2181375.34946                  21934294.1884
        22.0004         20.5004
  20977871.2194    -117324.99247    -93730.00947                  20977877.2074
        27.0004         26.2504
  22578457.0944   -2735132.60446  -2085076.87646                  22578465.0554
        17.2504         17.0004
 02  7 11 19 11 15.0000000  0  8G 3G 9G14G15G17G18G21G31
  21740108.5164    1042136.74747    796738.96446                  21740115.1604
        24.2504         23.5004
  23430504.5234    -166033.74443    -78029.10145                  23430514.7584
         6.0004          7.0004
  20922226.0704   -4074203.15347  -3105593.24847                  20922231.6954
        26.5004         28.2504
  22129115.8914    3476450.75547   2644251.03946                  22129123.4534
        20.0004         18.7504
  22904822.1884    3922721.79145   2983133.20146                  22904829.9614
        11.7504         12.0004
  21939442.8054    2892809.45347   2202482.92046                  21939449.3204
        22.2504         20.5004
  20977688.4924    -118284.18147    -94477.42747                  20977695.0204
        26.5004         26.7504
  22574389.5314   -2756509.81546  -2101734.43846                  22574398.1134
        17.5004         17.0004
 02  7 11 19 11 30.0000000  0  8G 3G 9G14G15G17G18G21G31
  21742901.2274    1056811.00247    808173.42746                  21742907.8714
        25.7504         24.0004
  23429353.0864    -172090.42944    -82748.60945                  23429359.6844
         6.2504          5.7504
  20915587.6334   -4109087.45447  -3132775.78347                  20915593.3164
        26.5004         28.2504
  22135730.4924    3511207.45047   2671334.13546                  22135738.0904
        21.0004         19.0004
  22912162.9774    3961296.40745   3013191.27846                  22912172.3914
        11.7504         12.5004
  21944597.6334    2919897.23447   2223590.26146                  21944604.1604
        23.0004         20.7504
  20977508.1954    -119232.72447    -95216.55747                  20977514.8164
        26.5004         26.7504
  22570342.2034   -2777781.33146  -2118309.63146                  22570350.6564
        18.2504         17.2504
 02  7 11 19 11 45.0000000  0  8G 3G 9G14G15G17G18G21G31
  21745711.7274    1071582.30047    819683.50446                  21745719.0434
        24.7504         24.0004
  23428222.8444    -178031.69943    -87378.22045                  23428231.8714
         5.7504          5.5004
  20908966.6024   -4143881.79647  -3159888.22747                  20908972.6134
        26.2504         27.7504
  22142352.1484    3546009.26046   2698452.38646                  22142360.4384
        19.2504         18.5004
  22919510.0004    3999908.14045   3043278.25846                  22919519.4144
        10.7504         12.2504
  21949753.0864    2946988.87947   2244700.60146                  21949759.2974
        23.2504         20.7504
  20977330.3524    -120166.41847    -95944.11747                  20977336.7974
        26.5004         26.5004
  22566315.2194   -2798942.86246  -2134799.13046                  22566323.9304
        17.5004         17.2504
 02  7 11 19 12  0.0000000  0  8G 3G 9G14G15G17G18G21G31
  21748540.5554    1086447.80847    831267.00146                  21748548.0824
        24.5004         24.0004
  23427107.5314    -183860.15541    -91919.79245                  23427119.2194
         3.5004          5.7504
  20902361.8594   -4178588.48247  -3186932.37147                  20902368.1414
        25.2504         28.2504
  22148983.1094    3580853.38346   2725603.60046                  22148991.2464
        19.7504         18.5004
  22926864.3524    4038554.30145   3073392.07346                  22926876.8594
        10.5004         12.2504
  21954908.0084    2974081.60647   2265811.77646                  21954913.8324
        22.2504         20.7504
  20977155.4384    -121087.85247    -96662.12047                  20977161.6724
        27.7504         26.7504
  22562309.3364   -2819996.98146  -2151204.92246                  22562317.5084
        18.5004         16.5004
 02  7 11 19 12 15.0000000  0  8G 3G 9G14G15G17G18G21G31
  21751387.3914    1101408.07547    842924.33546                  21751395.1414
        24.2504         23.7504
  23426024.2664    -189574.73742    -96372.76845                  23426033.5744
         4.7504          5.2504
  20895774.1644   -4213206.71547  -3213907.59247                  20895780.3284
        26.0004         28.5004
  22155622.2974    3615740.49447   2752788.30446                  22155630.5274
        20.5004         18.7504
  22934224.3134    4077235.48245   3103533.17446                  22934236.4224
        10.0004         12.0004
  21960064.0084    3001176.08847   2286924.36046                  21960070.0904
        22.5004         20.7504
  20976982.8754    -121996.49348    -97370.14547                  20976989.2974
        28.2504         27.0004
  22558322.9224   -2840942.77846  -2167526.31446                  22558329.5904
        17.5004         15.7504
 02  7 11 19 12 30.0000000  0  8G 3G 9G14G15G17G18G21G31
  21754252.3594    1116463.84847    854656.09446                  21754259.7704
        24.2504         23.7504
  23424960.4774    -195174.33043   -100736.06045                  23424966.9344
         6.0004          5.0004
  20889204.2974   -4247735.21047  -3240812.90547                  20889210.0984
        26.7504         29.0004
  22162269.2504    3650671.60747   2780007.31146                  22162276.9654
        20.0004         19.0004
  22941592.6254    4115952.71745   3133702.36146                  22941604.3594
         9.7504         12.0004
  21965221.2894    3028273.23047   2308038.99846                  21965227.3014
        24.5004         20.7504
  20976812.5634    -122891.23548    -98067.33747                  20976818.9144
        28.2504         26.5004
  22554358.1174   -2861779.03046  -2183762.32546                  22554364.4804
        18.2504         15.5004
 02  7 11 19 12 45.0000000  0  8G 3G 9G14G15G17G18G21G31
  21757135.0704    1131613.47747    866460.97346                  21757142.1524
        23.5004         23.5004
  23423916.9694    -200660.25844   -105010.73945                  23423927.7424
         6.2504          6.0004
  20882650.5234   -4282175.21747  -3267649.24447                  20882655.5984
        27.5004         29.0004
  22168924.5944    3685645.20547   2807259.41546                  22168932.8714
        20.0004         18.2504
  22948967.9384    4154704.36545   3163898.37445                  22948977.6684
        10.5004         11.0004
  21970378.1414    3055371.68347   2329154.62846                  21970383.5664
        24.5004         20.0004
  20976644.6804    -123773.45548    -98754.76947                  20976650.9494
        28.2504         26.7504
  22550414.0864   -2882507.08546  -2199914.03346                  22550420.3794
        19.0004         15.7504
 02  7 11 19 13  0.0000000  0  8G 3G 9G14G15G17G18G21G31
  21760035.8364    1146858.20147    878339.95946                  21760042.7894
        23.0004         23.5004
  23422896.1804    -206031.00944   -109195.84244                  23422903.2274
         6.7504          4.2504
  20876114.2114   -4316525.16348  -3294415.40547                  20876118.9454
        28.0004         29.0004
  22175588.6644    3720662.62347   2834545.64446                  22175596.2734
        20.0004         18.2504
  22956349.0704    4193492.00145   3194122.41345                  22956358.3094
        10.7504         11.0004
  21975534.3444    3082472.65447   2350272.27746                  21975540.2384
        23.5004         20.0004
  20976479.6804    -124641.81148    -99431.41347                  20976485.3634
        28.5004         26.5004
  22546490.7034   -2903125.31346  -2215980.16546                  22546496.8324
        19.0004         16.5004
 02  7 11 19 13 15.0000000  0  8G 3G 9G14G15G17G18G21G31
  21762955.2274    1162198.29047    890293.25846                  21762962.6374
        23.2504         23.5004
  23421896.8284    -211285.90744   -113290.52044                  23421903.7344
         6.2504          3.7504
  20869594.8444   -4350784.33948  -3321110.83947                  20869599.6484
        28.2504         29.2504
  22182261.0084    3755724.33947   2861866.40546                  22182269.2854
        20.2504         18.5004
  22963736.9384    4232315.70145   3224374.55445                  22963746.7384
        10.7504         11.2504
  21980691.4844    3109576.57847   2371392.20946                  21980697.8954
        22.7504         20.2504
  20976316.9224    -125496.00348   -100097.01847                  20976322.6764
        28.2504         26.2504
  22542587.8984   -2923633.22846  -2231960.35746                  22542593.9924
        18.5004         16.5004
 02  7 11 19 13 30.0000000  0  8G 3G 9G14G15G17G18G21G31
  21765892.5634    1177633.56347    902320.71446                  21765900.3954
        23.0004         23.0004
  23420917.5784    -216424.95742   -117294.89244                  23420923.5554
         4.7504          3.5004
  20863092.3984   -4384952.57647  -3347735.41747                  20863098.1764
        27.0004         28.7504
  22188940.1954    3790830.14446   2889221.52546                  22188948.4024
        18.0004         18.2504
  22971132.9454    4271175.54645   3254654.83946                  22971142.7934
        11.7504         12.2504
  21985850.7734    3136683.27647   2392514.28746                  21985857.3834
        24.2504         20.0004
  20976156.6024    -126335.96247   -100751.51547                  20976162.8714
        27.0004         26.0004
  22538705.6884   -2944030.59946  -2247854.39546                  22538712.8874
        18.0004         16.7504
 02  7 11 19 13 45.0000000  0  8G 3G 9G14G15G17G18G21G31
  21768847.2734    1193164.15947    914422.44446                  21768855.0824
        22.0004         23.2504
  23419961.1254    -221447.78942
         3.7504
  20856608.0164   -4419029.40047  -3374288.76247                  20856613.9454
        27.0004         29.0004
  22195628.6254    3825980.28546   2916611.18546                  22195637.6174
        17.0004         18.0004
  22978534.1334    4310071.70745   3284963.43445                  22978543.5594
        11.2504         11.7504
  21991009.2344    3163793.03147   2413638.73446                  21991014.9184
        23.7504         19.7504
  20975999.7734    -127161.55647   -101394.84047                  20976006.1724
        27.5004         26.2504
  22534844.7034   -2964316.93246  -2263661.94046                  22534851.3364
        16.2504         16.5004
 02  7 11 19 14  0.0000000  0  8G 3G 9G14G15G17G18G21G31
  21771821.7424    1208792.73047    926600.52946                  21771829.0124
        23.2504         23.2504
  23419027.4774    -226351.30041
         3.2504
  20850141.8364   -4453011.81248  -3400768.55147                  20850147.3094
        28.5004         29.0004
  22202326.9924    3861177.54846   2944037.57846                  22202335.7624
        17.7504         17.7504
  22985942.7424    4349007.03845   3315302.58145                  22985953.1414
        10.5004         10.7504
  21996168.6954    3190908.67347   2434767.79946                  21996174.5664
        22.7504         19.5004
  20975846.1024    -127969.63247   -102024.52547                  20975852.0784
        27.7504         26.0004
  22531006.3524   -2984489.35746  -2279380.69646                  22531013.2464
        16.5004         16.0004
 02  7 11 19 14 15.0000000  0  8G 3G 9G14G15G17G18G21G31
  21774813.8134    1224515.86947    938852.29446                  21774821.0474
        23.2504         23.2504
  23418117.7194    -231138.56442
         4.0004
  20843692.3914   -4486902.79548  -3427177.07547                  20843697.2774
        28.2504         29.2504
  22209033.1024    3896418.64646   2971498.13246                  22209042.0234
        17.5004         17.7504
  22993359.7664    4387978.21245   3345669.61645                  22993369.7074
        11.7504         11.5004
  22001329.6954    3218026.88047   2455898.87146                  22001336.1174
        23.0004         20.0004
  20975695.0084    -128763.30348   -102642.97347                  20975701.0204
        28.2504         26.0004
  22527188.9614   -3004550.78446  -2295012.96146                  22527195.4654
        16.7504         15.5004
 02  7 11 19 14 30.0000000  0  8G 3G 9G14G15G17G18G21G31
  21777823.9454    1240332.01747    951176.54246                  21777831.0394
        23.2504         23.0004
  23417229.3524    -235810.86241
         3.5004
  20837259.8674   -4520703.42147  -3453515.20347                  20837264.9304
        27.0004         28.7504
  22215748.0234    3931702.24046   2998991.79046                  22215756.2194
        18.5004         17.5004
  23000780.5474    4426983.75345   3376063.49645                  23000791.3794
        10.7504         11.5004
  22006490.7504    3245146.37947   2477030.90446                  22006497.5704
        23.2504         20.2504
  20975546.2504    -129544.09047   -103251.37047                  20975552.2384
        27.7504         25.7504
  22523393.1414   -3024502.50246  -2310559.75046                  22523399.0704
        18.2504         15.5004
 02  7 11 19 14 45.0000000  0  7G 3G14G15G17G18G21G31
  21780851.6414    1256245.31847    963576.48846                  21780858.8164
        22.7504         23.2504
  20830845.6484   -4554409.27247  -3479779.48347                  20830851.1564
        26.2504         28.2504
  22222470.6884    3967032.38346   3026521.73046                  22222478.9414
        17.7504         17.5004
  23008211.7734    4466028.00345   3406487.48645                  23008221.6214
        11.7504         11.2504
  22011652.8284    3272271.20647   2498167.10446                  22011659.5434
        23.7504         20.2504
  20975401.0474    -130307.82547   -103846.49547                  20975406.9184
        27.7504         25.7504
  22519617.6254   -3044340.15846  -2326017.65946                  22519623.7424
        17.5004         15.2504
 02  7 11 19 15  0.0000000  0  7G 3G14G15G17G18G21G31
  21783898.1254    1272250.14647    976047.77446                  21783905.4884
        23.7504         23.0004
  20824448.5554   -4588025.72747  -3505974.09847                  20824454.3204
        26.0004         28.2504
  22229201.7974    4002403.58146   3054083.63746                  22229210.0744
        18.0004         17.2504
  23015648.0314    4505105.19646   3436937.17445                  23015657.3054
        12.2504         11.0004
  22016814.3134    3299395.81447   2519303.15446                  22016820.6174
        23.5004         20.5004
  20975257.7974    -131059.88848   -104432.52547                  20975263.8554
        28.0004         25.7504
  22515862.9304   -3064069.08946  -2341390.80946                  22515869.7734
        17.2504         15.7504
 02  7 11 19 15 15.0000000  0  7G 3G14G15G17G18G21G31
  21786961.6334    1288349.53247    988592.71746                  21786968.9384
        24.5004         23.2504
  20818069.4924   -4621549.23547  -3532096.29047                  20818074.7894
        26.5004         28.2504
  22235940.7194    4037819.13846   3081680.11746                  22235949.3244
        17.5004         17.2504
  23023090.4844    4544218.67345   3467415.12945                  23023100.5554
        10.7504         11.2504
  22021975.2504    3326523.61747   2540441.67246                  22021981.7194
        20.5004         20.2504
  20975117.8914    -131796.92748   -105006.84847                  20975123.8794
        28.7504         25.7504
  22512130.3914   -3083685.73146  -2356676.48446                  22512137.2854
        18.2504         16.5004
 02  7 11 19 15 30.0000000  0  8G 3G 9G14G15G17G18G21G31
  21790043.8914    1304543.44047   1001211.33146                  21790051.5594
        25.5004         23.7504
  23413893.4384      -3070.85352
         4.2504
  20811707.9534   -4654979.33047  -3558145.68747                  20811713.5314
        26.5004         28.0004
  22242689.3204    4073279.17946   3109311.26646                  22242697.7384
        18.5004         17.5004
  23030539.4924    4583368.61245   3497921.47445                  23030551.6604
         9.2504         10.5004
  22027139.6804    3353654.79447   2561582.79746                  22027146.1134
        22.0004         20.0004
  20974980.6024    -132518.88548   -105569.41647                  20974986.5784
        28.7504         26.2504
  22508418.5394   -3103189.78446  -2371874.44846                  22508425.7854
        17.5004         16.5004
 02  7 11 19 15 45.0000000  0  8G 3G 9G14G15G17G18G21G31
  21793141.8754    1320826.19047   1013899.17046                  21793149.3444
        24.2504         23.2504
  23413113.1644      -7162.25142
         4.5004
  20805362.9064   -4688321.38247  -3584126.48547                  20805368.8954
        25.5004         27.7504
  22249444.1884    4108778.15546   3136972.74746                  22249452.8984
        18.0004         18.0004
  23037996.5474    4622549.29845   3528451.80745                  23038007.8134
        11.5004         11.7504
  22032300.9144    3380783.63447   2582722.14246                  22032307.6764
        22.0004         20.2504
  20974845.0314    -133231.24148   -106124.49947                  20974851.0664
        28.5004         26.5004
  22504727.4064   -3122586.61246  -2386988.84546                  22504735.3094
        17.5004         17.0004
 02  7 11 19 16  0.0000000  0  8G 3G 9G14G15G17G18G21G31
  21796257.5704    1337197.65947   1026656.13746                  21796264.6174
        24.7504         23.5004
  23412354.6024     -11141.02142
         3.7504
  20799034.6484   -4721575.15547  -3610038.50047                  20799040.7544
        25.0004         28.0004
  22256206.6334    4144315.99146   3164664.50646                  22256215.7774
        17.2504         18.0004
  23045458.7584    4661760.80846   3559006.12745                  23045469.2504
        12.2504         11.7504
  22037463.1804    3407910.10447   2603859.64646                  22037469.7544
        21.7504         20.2504
  20974710.8754    -133933.99248   -106672.11147                  20974717.1094
        28.0004         26.5004
  22501056.4144   -3141876.13246  -2402019.62846                  22501064.5864
        17.0004         17.0004
 02  7 11 19 16 15.0000000  0  8G 3G 9G14G15G17G18G21G31
  21799391.4534    1353663.98647   1039487.02546                  21799398.3594
        26.0004         23.2504
  23411620.7344     -15001.02942
         4.2504
  20792725.8054   -4754734.12147  -3635876.63047                  20792731.6764
        26.7504         28.0004
  22262978.3054    4179898.95446   3192391.43946                  22262987.2384
        18.2504         18.0004
  23052928.2344    4701009.30546   3589589.27645                  23052938.4224
        12.5004         11.2504
  22042626.6644    3435040.54647   2625000.20946                  22042632.6884
        23.0004         20.0004
  20974580.3594    -134620.87748   -107207.35547                  20974586.7114
        28.0004         26.5004
  22497408.0394   -3161051.74846  -2416961.65846                  22497415.7424
        17.5004         16.5004
 02  7 11 19 16 30.0000000  0  8G 3G 9G14G15G17G18G21G31
  21802541.8834    1370220.93447   1052388.51746                  21802548.8484
        24.5004         23.2504
  23410909.6484      -2734.96853
         5.0004
  20786433.1564   -4787802.21747  -3661643.95647                  20786438.5474
        27.5004         28.2504
  22269757.3444    4215522.85946   3220150.26146                  22269766.2194
        18.2504         18.2504
  23060403.3834    4740290.74746   3620198.07845                  23060413.0434
        12.5004         11.2504
  22047788.4064    3462170.77347   2646140.62546                  22047794.5704
        21.5004         20.2504
  20974451.9694    -135295.88448   -107733.34347                  20974458.2274
        28.0004         26.5004
  22493780.4454   -3180117.48046  -2431818.07746                  22493787.3984
        18.0004         16.2504
 02  7 11 19 16 45.0000000  0  8G 3G 9G14G15G17G18G21G31
  21805709.3054    1386865.05847   1065357.93546                  21805716.3754
        25.2504         23.0004
  23410221.0784      -6368.06243
         5.0004
  20780157.1094   -4820782.34747  -3687342.73547                  20780162.3714
        27.7504         28.5004
  22276543.7894    4251184.53346   3247938.53446                  22276552.2894
        18.5004         18.0004
  23067883.7114    4779601.78945   3650829.95445                  23067893.0204
        11.2504         10.7504
  22052950.1884    3489297.58847   2667278.38846                  22052956.5394
        20.7504         20.0004
  20974324.7814    -135962.09747   -108252.46547                  20974330.9574
        27.2504         26.5004
  22490172.0234   -3199076.26846  -2446591.15146                  22490179.8674
        17.2504         16.5004
 02  7 11 19 17  0.0000000  0  8G 3G 9G14G15G17G18G21G31
  21808891.0944    1403593.67947   1078393.19646                  21808898.5044
        21.7504         23.2504
  23409546.4224      -9891.58142
         4.5004
  20773896.9064   -4853676.91947  -3712974.84847                  20773902.3554
        26.5004         28.2504
  22283336.1414    4286881.42046   3275754.23246                  22283345.0634
        17.5004         17.2504
  23075369.4844    4818939.82745   3681482.87745                  23075379.5204
        11.7504         11.5004
  22058112.7974    3516418.43847   2688411.48146                  22058118.5864
        23.5004         19.5004
  20974199.8364    -136622.10948   -108766.76547                  20974205.8954
        28.2504         26.7504
  22486585.4224   -3217930.64346  -2461282.85346                  22486592.2664
        19.7504         16.2504
 02  7 11 19 17 15.0000000  0  8G 3G 9G14G15G17G18G21G31
  21812091.8674    1420412.79047   1091498.97946                  21812099.3244
        22.2504         23.0004
  23408898.2584     -13299.42842
         4.5004
  20767654.9224   -4886479.53347  -3738535.30747                  20767660.5124
        26.5004         28.5004
  22290138.2814    4322619.54646   3303602.04846                  22290146.5594
        19.5004         17.5004
  23082860.9144    4858311.01745   3712161.64845                  23082870.4454
        11.0004         11.2504
  22063273.6484    3543539.40047   2709544.66246                  22063279.1334
        23.0004         19.2504
  20974076.8364    -137269.57148   -109271.28847                  20974083.0824
        28.5004         26.5004
  22483018.7504   -3236674.15846  -2475888.18846                  22483025.1724
        19.7504         16.7504
 02  7 11 19 17 30.0000000  0  8G 3G 9G14G15G17G18G21G31
  21815308.8674    1437319.00147   1104672.62346                  21815316.1724
        21.7504         22.7504
  23408276.0164     -16594.57643
         5.5004
  20761429.7274   -4919193.17947  -3764026.43647                  20761435.3754
        26.5004         28.2504
  22296945.1564    4358395.63846   3331479.47646                  22296953.3404
        18.0004         17.5004
  23090359.7664    4897712.13045   3742863.69345                  23090370.4574
        11.7504         10.5004
  22068434.0164    3570657.25447   2730675.44646                  22068439.6054
        22.2504         18.7504
  20973954.4844    -137907.90847   -109768.69147                  20973960.7544
        27.2504         26.5004
  22479472.1094   -3255310.01046  -2490409.61846                  22479479.1564
        19.2504         16.5004
 02  7 11 19 17 45.0000000  0  8G 3G 9G14G15G17G18G21G31
  21818541.7664    1454309.15747   1117911.68846                  21818549.0124
        21.2504         22.2504
  23407662.9144     -19779.75142
         3.7504
  20755221.0394   -4951820.58147  -3789450.35947                  20755226.4414
        26.7504         28.2504
  22303760.1954    4394206.85346   3359384.24946                  22303768.4844
        18.2504         17.7504
  23097862.6564    4937140.13545   3773586.75345                  23097872.4454
        11.7504         11.7504
  22073592.6884    3597769.04847   2751801.48846                  22073598.6294
        21.5004         18.7504
  20973834.5084    -138539.93447   -110261.17147                  20973840.8954
        27.7504         26.0004
  22475944.9384   -3273840.84446  -2504849.23646                  22475951.4774
        18.2504         16.5004
 02  7 11 19 18  0.0000000  0  8G 3G 9G14G15G17G18G21G31
  21821791.6414    1471386.65247   1131218.79346                  21821798.5944
        21.2504         22.0004
  23407079.3204      -1012.31751
         3.2504
  20749028.8444   -4984358.02347  -3814804.19147                  20749034.2464
        26.0004         28.2504
  22310582.7194    4430056.51646   3387318.99246                  22310590.9964
        19.7504         18.0004
  23105370.8754    4976598.51245   3804333.43745                  23105380.7234
        11.2504         10.7504
  22078752.4924    3624878.24347   2772925.50146                  22078758.8914
        22.5004         18.7504
  20973716.4224    -139162.22848   -110746.07847                  20973722.7154
        28.2504         26.0004
  22472438.2584   -3292263.05446  -2519204.19746                  22472445.6334
        16.5004         16.5004
 02  7 11 19 18 15.0000000  0  8G 3G 9G14G15G17G18G21G31
  21825057.9384    1488549.06647   1144592.08146                  21825065.0314
        22.0004         22.2504
  23406512.8914       -388.43451
         3.2504
  20742854.3754   -5016807.57947  -3840089.55147                  20742859.8714
        26.7504         28.0004
  22317411.7894    4465942.50947   3415282.03946                  22317420.6524
        20.5004         18.5004
  23112884.8754    5016084.91845   3835101.96245                  23112893.7974
        10.5004         10.5004
  22083910.3204    3651982.57547   2794045.71746                  22083916.5784
        22.7504         18.7504
  20973599.2734    -139776.88147   -111225.03847                  20973605.4614
        27.2504         26.0004
  22468953.2504   -3310578.65546  -2533476.08946                  22468960.7424
        16.5004         16.5004
 02  7 11 19 18 30.0000000  0  8G 3G 9G14G15G17G18G21G31
  21828339.8284    1505796.13747   1158031.32446                  21828347.4384
        21.7504         22.2504
  23405976.1094      -3237.15843
         6.0004
  20736695.5944   -5049169.01547  -3865306.21847                  20736701.4414
        25.5004         27.7504
  22324246.9774    4501864.71446   3443273.30246                  22324255.5704
        19.5004         18.5004
  23120403.4384    5055599.44045   3865892.41645                  23120412.2074
         9.2504          9.7504
  22089066.5394    3679082.11347   2815162.19846                  22089072.1764
        22.7504         18.7504
  20973483.0554    -140383.91147   -111698.06747                  20973489.3244
        26.7504         26.0004
  22465488.3984   -3328787.60346  -2547664.85346                  22465495.9844
        16.5004         16.0004
 02  7 11 19 18 45.0000000  0  8G 3G 9G14G15G17G18G21G31
  21831637.3284    1523125.20047   1171534.47746                  21831645.1484
        20.7504         22.2504
  23405454.8444      -5976.84344
         7.0004
  20730554.2194   -5081444.79147  -3890456.15847                  20730559.9734
        27.0004         28.5004
  22331089.5234    4537820.39547   3471290.65746                  22331098.1054
        20.2504         18.2504
  23127926.2814    5095139.20944   3896702.50145                  23127937.6524
         7.2504          9.2504
  22094221.4694    3706174.16047   2836272.86446                  22094227.2464
        22.0004         18.5004
  20973368.7114    -140985.93547   -112167.18647                  20973375.0274
        26.5004         26.0004
  22462043.6334   -3346892.33846  -2561772.41946                  22462050.7734
        18.2504         16.2504
 02  7 11 19 19  0.0000000  0  8G 3G 9G14G15G17G18G21G31
  21834950.3674    1540535.55747   1185100.96446                  21834958.0004
        20.7504         22.0004
  23404953.4454      -8607.80244
         7.2504
  20724428.4224   -5113635.12647  -3915539.52447                  20724433.9884
        26.5004         28.2504
  22337938.5634    4573809.00747   3499333.65846                  22337946.7584
        21.2504         18.5004
  23135455.7424    5134703.72544   3927531.87745                  23135468.1454
         7.2504          8.5004
  22099377.0554    3733258.11647   2857377.22546                  22099381.9064
        25.2504         18.5004
  20973255.1174    -141583.23947   -112632.63847                  20973261.8204
        27.0004         26.2504
  22458617.9774   -3364893.22246  -2575799.07846                  22458624.0124
        18.0004         16.2504
 02  7 11 19 19 15.0000000  0  8G 3G 9G14G15G17G18G21G31
  21838279.2034    1558028.91547   1198732.11746                  21838286.8484
        20.0004         21.5004
  23404475.3444     -11127.97144
         7.2504
  20718319.6414   -5145737.88647  -3940554.64047                  20718325.1254
        27.0004         28.5004
  22344792.2734    4609832.42146   3527403.79946                  22344800.5634
        18.5004         18.2504
  23142990.5634    5174294.95045   3958382.07445                  23143000.2934
         8.5004          8.7504
  22104529.0314    3760335.95647   2878476.79846                  22104533.9064
        23.5004         18.5004
  20973143.1174    -142173.97247   -113092.96247                  20973149.5864
        27.7504         26.2504
  22455213.0944   -3382788.13246  -2589743.16446                  22455219.1524
        17.5004         15.7504
 02  7 11 19 19 30.0000000  0  8G 3G 9G14G15G17G18G21G31
  21841623.8914    1575602.43147   1212425.73146                  21841631.5474
        21.0004         21.7504
  23404016.4304     -13539.86944
         6.7504
  20712226.8054   -5177755.62547  -3965503.50747                  20712232.2894
        27.2504         28.5004
  22351654.7664    4645888.11846   3555499.07346                  22351663.7114
        19.2504         18.0004
  23150529.6724    5213910.10845   3989250.92845                  23150539.2974
        10.0004         10.0004
  22109679.4614    3787404.99047   2899569.51246                  22109685.1684
        23.5004         18.2504
  20973031.5314    -142760.80048   -113550.24447                  20973037.9064
        28.2504         26.5004
  22451827.8754   -3400579.56346  -2603606.61146                  22451834.1094
        17.7504         15.5004
 02  7 11 19 19 45.0000000  0  8G 3G 9G14G15G17G18G21G31
  21844984.5554    1593257.96247   1226183.26046                  21844992.0004
        22.0004         21.5004
  23403579.2814     -15841.27944
         6.5004
  20706150.1334   -5209685.96947  -3990384.27347                  20706155.9694
        26.5004         28.2504
  22358520.6644    4681978.09946   3583621.09246                  22358529.9024
        17.0004         18.0004
  23158074.0944    5253551.28745   4020140.06245                  23158084.3754
        10.5004         10.5004
  22114829.7894    3814467.41547   2920657.09546                  22114835.3914
        24.7504         19.5004
  20972921.2974    -143341.44648   -114002.69047                  20972927.3914
        29.0004         26.5004
  22448462.0554   -3418265.16546  -2617387.58046                  22448469.4884
        17.0004         15.5004
 02  7 11 19 19 59.9990000  0  8G 3G 9G14G15G17G18G21G31
  21848358.8004    1610995.32547   1240004.55346                  21848366.0224
        20.5004         21.5004
  23403159.8154     -18030.78342
         4.7504
  20700091.3394   -5241525.39647  -4015194.19847                  20700097.3514
        26.0004         28.0004
  22365396.2924    4718101.02346   3611768.76446                  22365406.0464
        19.0004         18.0004
  23165622.1444    5293216.97945   4051048.24845                  23165631.5114
        10.0004         10.0004
  22119978.1594    3841522.47147   2941738.93346                  22119983.8314
        24.7504         19.2504
  20972812.4094    -143914.83548   -114449.49247                  20972818.2694
        29.5004         26.5004
  22445116.4954   -3435842.61146  -2631084.27746                  22445123.4374
        16.2504         15.5004
 02  7 11 19 20 14.9990000  0  8G 3G 9G14G15G17G18G21G31
  21851748.6594    1628811.48546   1253887.23946                  21851756.4094
        19.7504         21.2504
  23402765.8004     -20114.01343
         5.7504
  20694048.6834   -5273283.29947  -4039940.60847                  20694054.3664
        27.2504         28.7504
  22372275.5654    4754256.40246   3639941.74346                  22372285.0154
        17.7504         17.2504
  23173173.0504    5332907.09945   4081975.50945                  23173183.6944
         8.2504          9.7504
  22125124.6284    3868568.50047   2962813.73246                  22125130.4524
        25.0004         20.0004
  20972703.2924    -144486.09448   -114894.62147                  20972709.3744
        28.0004         25.7504
  22441790.8624   -3453319.37446  -2644702.52846                  22441796.9564
        16.2504         15.2504
 02  7 11 19 20 29.9990000  0  8G 3G 9G14G15G17G18G21G31
  21855154.6674    1646710.00046   1267834.11746                  21855162.4524
        19.7504         21.2504
  23402388.2224     -22085.49042
         4.2504
  20688022.0034   -5304952.18647  -4064617.64147                  20688027.2304
        27.0004         29.0004
  22379163.2764    4790446.78946   3668141.96346                  22379172.1874
        19.2504         17.5004
  23180731.2374    5372623.97045   4112923.62145                  23180744.5424
         7.7504          8.7504
  22130270.7614    3895608.75047   2983884.03446                  22130276.9724
        26.0004         20.2504
  20972595.0584    -145050.19547   -115334.18047                  20972601.3514
        26.2504         25.7504
  22438485.8624   -3470689.05046  -2658237.33746                  22438492.2144
        17.0004         15.7504
 02  7 11 19 20 44.9990000  0  8G 3G 9G14G15G17G18G21G31
  21858575.6364    1664686.11247   1281841.45246                  21858583.3274
        20.0004         21.5004
  23402035.8944     -23949.77543     -1057.53055                  23402043.7964
         5.0004          5.7504
  20682012.0344   -5336536.60847  -4089228.85447                  20682017.1554
        27.7504         28.7504
  22386056.5264    4826667.49547   3696365.83646                  22386063.7024
        21.2504         17.5004
  23188293.3234    5412362.81845   4143888.87345                  23188305.8084
         8.2504          9.7504
  22135414.3394    3922638.43947   3004946.10846                  22135420.2224
        26.0004         20.5004
  20972488.6444    -145611.86047   -115771.84346                  20972494.9604
        26.7504         25.5004
  22435199.8554   -3487956.24246  -2671692.29846                  22435205.9834
        17.7504         16.2504
 02  7 11 19 20 59.9990000  0  8G 3G 9G14G15G17G18G21G31
  21862011.7614    1682738.92947   1295908.55246                  21862019.5694
        21.7504         21.5004
  23401701.4334     -25707.43243     -2427.19745                  23401717.3154
         5.2504          5.7504
  20676017.2374   -5368036.96047  -4113774.56347                  20676022.6054
        27.0004         28.7504
  22392954.4564    4862917.77947   3724612.75446                  22392961.9134
        20.7504         17.2504
  23195859.3624    5452123.13945   4174870.84545                  23195871.7654
         8.2504          9.5004
  22140554.5974    3949656.84847   3025999.38846                  22140560.8084
        23.2504         20.2504
  20972381.9014    -146171.72847   -116208.13047                  20972388.1244
        26.2504         25.7504
  22431934.3004   -3505121.31346  -2685067.67146                  22431941.1714
        19.5004         16.7504
 02  7 11 19 21 14.9990000  0  8G 3G 9G14G15G17G18G21G31
  21865461.9174    1700870.12247   1310036.72246                  21865469.7144
        21.5004         22.0004
  23401386.9484     -27356.74843     -3712.38245                  23401397.1714
         5.0004          5.0004
  20670039.4564   -5399451.46947  -4138253.38147                  20670044.7884
        27.2504         29.2504
  22399858.3394    4899199.30746   3752884.01046                  22399865.9254
        19.2504         16.5004
  23203431.5974    5491906.38345   4205870.63545                  23203442.4874
        10.7504         10.2504
  22145694.8944    3976665.75747   3047045.25746                  22145700.9054
        24.5004         20.7504
  20972276.2144    -146727.96247   -116641.56347                  20972282.7184
        27.0004         26.2504
  22428687.0814   -3522182.45446  -2698362.04746                  22428694.1634
        18.2504         16.5004
 02  7 11 19 21 29.9990000  0  8G 3G 9G14G15G17G18G21G31
  21868926.3234    1719075.84247   1324222.96146                  21868933.6634
        22.0004         21.5004
  23401091.8234       -503.15152     -4915.80045                  23401102.9954
         3.7504          5.2504
  20664077.2374   -5430783.42047  -4162667.86647                  20664082.5814
        27.0004         29.0004
  22406767.9724    4935508.59346   3781176.86746                  22406776.4254
        18.7504         16.0004
  23211005.8554    5531708.96445   4236885.55345                  23211016.5464
        11.7504         10.5004
  22150831.6674    4003661.69047   3068081.03446                  22150838.1834
        23.7504         21.2504
  20972170.4484    -147284.11647   -117074.93247                  20972176.7884
        27.0004         26.2504
  22425459.6284   -3539143.20146  -2711578.20846                  22425467.5544
        18.2504         16.5004
 02  7 11 19 21 44.9990000  0  7G 3G14G15G17G18G21G31
  21872405.4014    1737356.38947   1338467.50846                  21872412.4724
        22.0004         21.2504
  20658130.7454   -5462032.15647  -4187017.51447                  20658136.1594
        27.2504         29.0004
  22413681.9724    4971845.97346   3809491.66446                  22413689.6984
        17.0004         16.2504
  23218583.8624    5571531.37945   4267915.89145                  23218595.0584
        11.0004         10.7504
  22155967.1054    4030645.02247   3089106.97146                  22155973.2454
        25.0004         21.2504
  20972065.3004    -147839.46547   -117507.68147                  20972071.6404
        27.7504         26.2504
  22422251.0424   -3556002.90946  -2724715.64146                  22422258.5584
        17.5004         16.2504
 02  7 11 19 21 59.9990000  0  8G 3G 9G14G15G17G18G21G31
  21875898.5504    1755715.19247   1352773.03746                  21875905.6674
        21.0004         21.2504
  23400564.9804       -431.63552
         3.7504
  20652200.9724   -5493193.96547  -4211299.42147                  20652205.9994
        27.5004         29.2504
  22420604.0584    5008214.95046   3837831.04346                  22420612.5224
        18.7504         16.5004
  23226165.9014    5611377.03445   4298964.35045                  23226177.0034
        11.7504         11.2504
  22161099.6984    4057619.30947   3110125.87246                  22161106.0264
        23.2504         21.0004
  20971960.0894    -148390.52047   -117937.09247                  20971966.2184
        27.5004         26.5004
  22419063.4564   -3572757.86746  -2737771.43346                  22419070.7494
        18.5004         16.7504
 02  7 11 19 22 14.9990000  0  8G 3G 9G14G15G17G18G21G31
  21879406.4874    1774150.95347   1367138.54146                  21879413.7104
        20.7504         21.2504
  23400333.0894      -1653.00642
         4.0004
  20646288.0894   -5524269.72048  -4235514.27247                  20646292.9404
        28.2504         29.2504
  22427530.0654    5044614.39646   3866194.17246                  22427538.5894
        17.2504         16.5004
  23233751.3084    5651244.82245   4330030.08145                  23233763.0894
        11.0004         11.0004
  22166231.2534    4084583.34447   3131136.77046                  22166237.3704
        23.7504         20.7504
  20971856.2614    -148938.44548   -118364.04547                  20971862.6594
        28.7504         26.7504
  22415894.5504   -3589409.02246  -2750746.37046                  22415901.5734
        18.7504         16.7504
 02  7 11 19 22 29.9990000  0  8G 3G 9G14G15G17G18G21G31
  21882929.0654    1792661.16347   1381562.05046                  21882936.3234
        21.0004         21.5004
  23400121.7534      -2768.33842
         4.5004
  20640389.8704   -5555261.44347  -4259663.64747                  20640394.8624
        27.0004         29.2504
  22434461.4174    5081041.94146   3894579.22346                  22434470.2924
        16.5004         16.2504
  23241342.8314    5691132.44945   4361111.25645                  23241354.1794
        10.5004         10.7504
  22171360.7534    4111534.86047   3152137.92846                  22171366.9174
        25.0004         20.7504
  20971752.3234    -149485.50748   -118790.34347                  20971758.8744
        28.7504         26.7504
  22412744.8944   -3605958.52946  -2763642.08646                  22412751.3864
        18.2504         16.5004
 02  7 11 19 22 44.9990000  0  8G 3G 9G14G15G17G18G21G31
  21886465.3944    1811243.43147   1396041.71746                  21886472.5694
        21.5004         21.2504
  23399931.3624      -3779.83443
         5.0004
  20634507.7614   -5586171.27647  -4283749.21147                  20634513.1754
        26.7504         29.0004
  22441397.5814    5117495.32546   3922984.39346                  22441407.4174
        16.5004         17.2504
  23248936.8944    5731037.59745   4392206.06545                  23248947.1404
        11.0004         10.5004
  22176485.6204    4138471.73247   3173127.66346                  22176491.2224
        23.0004         20.5004
  20971648.1124    -150033.80848   -119217.60447                  20971654.3354
        29.5004         26.7504
  22409614.9484   -3622408.47546  -2776460.22046                  22409620.9484
        19.0004         16.5004
 02  7 11 19 22 59.9990000  0  8G 3G 9G14G15G17G18G21G31
  21890015.7694    1829901.44047   1410580.40646                  21890023.3554
        21.2504         21.2504
  23399760.1754      -4683.37944
         6.2504
  20628641.9334   -5616995.05747  -4307767.71747                  20628647.6164
        25.7504         28.2504
  22448339.9334    5153978.44346   3951412.72746                  22448350.2614
        16.2504         17.2504
  23256535.8864    5770964.17146   4423317.55045                  23256544.3744
        12.2504         10.5004
  22181609.9334    4165397.87247   3194109.04246                  22181615.8744
        23.0004         20.2504
  20971544.1834    -150579.48148   -119642.81847                  20971549.9484
        29.5004         26.5004
  22406503.1834   -3638754.69646  -2789197.55046                  22406509.3124
        17.0004         16.0004
 02  7 11 19 23 14.9990000  0  8G 3G 9G14G15G17G18G21G31
  21893581.0034    1848633.12347   1425176.49846                  21893588.6244
        22.2504         21.2504
  23399604.9804      -5480.68243      -405.38055                  23399619.1284
         5.0004          5.5004
  20622792.5814   -5647734.40847  -4331720.45047                  20622798.3124
        26.0004         28.5004
  22455288.9094    5190489.38846   3979862.76546                  22455299.1324
        17.0004         17.5004
  23264136.8704    5810910.23446   4454444.23345                  23264146.8704
        12.2504         11.2504
  22186731.5344    4192311.39747   3215080.59346                  22186737.5224
        22.2504         19.5004
  20971439.7694    -151124.34947   -120067.40947                  20971445.7924
        26.7504         26.0004
  22403413.0974   -3654999.18746  -2801855.59746                  22403419.6474
        18.2504         16.0004
 02  7 11 19 23 29.9990000  0  8G 3G 9G14G15G17G18G21G31
  21897158.9404    1867436.62347   1439828.54846                  21897166.1404
        22.2504         20.7504
  23399474.7064      -6173.40044      -945.10345                  23399477.2964
         6.2504          5.2504
  20616958.6444   -5678390.86847  -4355608.58347                  20616963.9644
        26.0004         28.7504
  22462241.0424    5227026.47046   4008333.14346                  22462251.7454
        16.5004         17.2504
  23271742.8554    5850873.92646   4485584.65945                  23271752.9604
        12.5004         11.2504
  22191849.7304    4219210.51647   3236040.92746                  22191855.8354
        21.5004         19.5004
  20971335.6754    -151669.98347   -120492.58847                  20971341.9444
        26.7504         26.0004
  22400341.0974   -3671143.21446  -2814435.34546                  22400347.9404
        18.7504         16.2504
 02  7 11 19 23 44.9990000  0  7G 3G14G15G17G18G21G31
  21900750.8784    1886314.35847   1454538.45046                  21900757.3354
        21.2504         20.0004
  20611141.6754   -5708961.67847  -4379429.96147                  20611146.5974
        27.0004         28.7504
  22469200.0894    5263592.24446   4036825.88346                  22469209.4334
        17.5004         17.0004
  23279349.6444    5890857.87145   4516740.87945                  23279361.3314
        10.0004         10.7504
  22196966.4954    4246097.81347   3256992.03046                  22196973.0584
        21.7504         19.2504
  20971232.7304    -152213.75847   -120916.32347                  20971239.0224
        27.5004         26.0004
  22397288.7694   -3687184.25446  -2826934.85746                  22397295.6634
        19.2504         16.0004
 02  7 11 19 23 59.9990000  0  7G 3G14G15G17G18G21G31
  21904357.4094    1905263.29747   1469303.81546                  21904363.8084
        22.0004         20.0004
  20605340.3944   -5739449.49048  -4403186.67947                  20605345.3274
        28.0004         28.5004
  22476163.1834    5300183.71846   4065338.66046                  22476172.0464
        17.2504         16.2504
  23286961.6054    5930859.25345   4547910.68145                  23286974.3354
         9.0004         10.2504
  22202080.1364    4272970.44447   3277931.71646                  22202086.7334
        22.0004         19.7504
  20971129.2844    -152758.51748   -121340.81247                  20971135.4724
        28.2504         26.2504
  22394254.6204   -3703125.00746  -2839356.20746                  22394261.5034
        17.5004         16.0004
 02  7 11 19 24 14.9990000  0  8G 3G 9G14G15G17G18G21G31
  21907976.2614    1924284.66447   1484125.63046                  21907983.0934
        21.0004         20.0004
  23399202.8394       -347.37542
         4.2504
  20599553.9954   -5769852.64347  -4426877.42847                  20599559.3154
        25.7504         28.5004
  22483130.9804    5336802.28246   4093872.54146                  22483139.6204
        16.7504         16.0004
  23294576.7064    5970879.37445   4579095.06145                  23294589.3784
         8.7504         10.2504
  22207191.9954    4299829.80747   3298861.06146                  22207198.4874
        22.7504         19.5004
  20971026.0264    -153302.64448   -121764.82047                  20971032.1904
        29.2504         26.5004
  22391241.0654   -3718963.80946  -2851698.13046                  22391247.9604
        18.2504         16.0004
 02  7 11 19 24 29.9990000  0  8G 3G 9G14G15G17G18G21G31
  21911609.3784    1943378.24046   1499003.71846                  21911616.8354
        19.5004         20.0004
  23399149.0974       -616.15342
         4.2504
  20593784.5814   -5800171.03647  -4450502.14647                  20593790.2534
        25.5004         28.2504
  22490104.7844    5373447.89746   4122427.47746                  22490112.5934
        16.7504         16.0004
  23302197.5584    6010918.12245   4610293.96845                  23302209.2694
        10.0004         10.5004
  22212300.6514    4326675.97647   3319780.13646                  22212306.5814
        22.2504         18.7504
  20970922.4564    -153846.17448   -122188.36547                  20970928.2574
        28.7504         26.5004
  22388246.1054   -3734700.64546  -2863960.61146                  22388252.7724
        18.0004         16.5004
 02  7 11 19 24 44.9990000  0  8G 3G 9G14G15G17G18G21G31
  21915255.5504    1962542.15646   1513936.59346                  21915262.7964
        18.5004         20.2504
  23399123.7534       -780.33243
         5.0004
  20588031.3234   -5830406.12547  -4474061.94247                  20588036.3744
        26.2504         28.2504
  22497083.0734    5410118.80346   4151002.14046                  22497091.0344
        17.2504         16.5004
  23309820.8784    6050973.73645   4641506.02045                  23309830.5264
        10.7504         10.5004
  22217405.9014    4353507.16947   3340687.51246                  22217411.4564
        20.7504         18.0004
  20970818.2374    -154390.70147   -122612.67747                  20970824.5194
        27.0004         25.7504
  22385271.0974   -3750337.13646  -2876144.88046                  22385278.2144
        19.2504         17.0004
 02  7 11 19 24 59.9990000  0  8G 3G 9G14G15G17G18G21G31
  21918916.1204    1981776.96046   1528924.74346                  21918923.2374
        19.5004         20.2504
  23399108.7374       -839.20942
         4.0004
  20582294.2064   -5860557.08647  -4497556.18447                  20582298.6364
        27.0004         28.2504
  22504065.7374    5446815.60846   4179596.96646                  22504074.4954
        15.5004         16.5004
  23317445.3084    6091046.96445   4672731.78045                  23317455.6594
        10.5004         11.0004
  22222508.9874    4380324.08447   3361583.79946                  22222515.1874
        20.2504         18.0004
  20970714.6054    -154935.50047   -123037.19846                  20970721.1084
        26.5004         25.2504
  22382315.9644   -3765872.32147  -2888250.22646                  22382321.7304
        20.5004         17.2504
 02  7 11 19 25 14.9990000  0  8G 3G 9G14G15G17G18G21G31
  21922590.7534    2001087.81746   1543972.14246                  21922597.8124
        19.7504         20.2504
  23399118.2144       -787.46442
         4.0004
  20576574.0974   -5890618.36048  -4520980.53247                  20576578.2104
        28.0004         28.5004
  22511056.8154    5483543.70146   4208216.19846                  22511065.6204
        17.5004         16.2504
  23325075.6054    6131142.92645   4703975.23345                  23325086.0504
        10.5004         11.2504
  22227610.0504    4407132.15146   3382473.14846                  22227616.3194
        19.7504         17.7504
  20970611.6284    -155475.33147   -123457.86746                  20970618.2614
        25.5004         25.0004
  22379379.3314   -3781300.78247  -2900272.39946                  22379385.1554
        20.0004         16.5004
 02  7 11 19 25 29.9990000  0  8G 3G 9G14G15G17G18G21G31
  21926280.1674    2020470.10747   1559075.18546                  21926287.1904
        21.2504         20.7504
  23399146.4334       -629.20241
         3.2504
  20570869.2764   -5920594.00547  -4544338.15547                  20570873.6944
        27.0004         28.5004
  22518050.2924    5520298.66746   4236856.37946                  22518059.4834
        17.0004         16.2504
  23332708.8944    6171257.43345   4735233.17745                  23332719.8664
         8.5004         10.0004
  22232708.9094    4433926.98647   3403352.20946                  22232714.9444
        20.7504         18.2504
  20970509.5114    -156014.41147   -123877.92646                  20970515.4874
        27.0004         25.2504
  22376461.3084   -3796626.74646  -2912214.72346                  22376466.8744
        17.5004         15.7504
 02  7 11 19 25 44.9990000  0  7G 3G14G15G17G18G21G31
  21929982.1514    2039924.40847   1574234.35446                  21929989.2224
        21.5004         20.7504
  20565180.9644   -5950483.14347  -4567628.37647                  20565186.0034
        25.7504         28.2504
  22525049.0194    5557081.32646   4265518.11546                  22525058.7144
        16.5004         17.0004
  23340345.4254    6211391.07545   4766506.03645                  23340356.9254
         8.2504         10.2504
  22237805.6124    4460709.36547   3424221.58546                  22237812.0464
        22.2504         18.5004
  20970407.1284    -156551.90247   -124296.75947                  20970413.2224
        27.2504         26.2504
  22373564.0654   -3811849.37746  -2924076.50846                  22373570.4764
        16.0004         15.7504
 02  7 11 19 25 59.9990000  0  7G 3G14G15G17G18G21G31
  21933698.1754    2059450.98947   1589449.84446                  21933705.3514
        21.7504         21.0004
  20559509.6204   -5980285.10947  -4590850.67247                  20559515.2574
        26.0004         28.2504
  22532054.8624    5593892.08046   4294201.74746                  22532063.6674
        17.7504         17.2504
  23347986.2534    6251544.23445   4797794.10045                  23347999.3474
         8.0004          9.5004
  22242899.2454    4487479.80147   3445081.64146                  22242905.9954
        21.5004         19.2504
  20970305.4874    -157087.11247   -124713.82447                  20970311.5934
        27.7504         26.7504
  22370687.3624   -3826967.95246  -2935857.20046                  22370694.2574
        15.7504         16.2504
 02  7 11 19 26 14.9990000  0  7G 3G14G15G17G18G21G31
  21937427.7454    2079048.51547   1604720.60646                  21937435.2724
        22.0004         21.0004
  20553855.0814   -6010001.00747  -4614005.90347                  20553860.7184
        26.2504         28.2504
  22539065.1204    5630729.60746   4322906.25246                  22539074.1944
        17.7504         16.5004
  23355633.7304    6291715.82745   4829096.53345                  23355646.6834
        10.0004          9.5004
  22247991.4874    4514237.03447   3465931.40346                  22247998.3944
        23.0004         19.2504
  20970203.6364    -157621.40047   -125130.15447                  20970210.0694
        27.2504         27.0004
  22367830.4564   -3841983.64746  -2947557.72946                  22367837.3154
        16.5004         16.7504
 02  7 11 19 26 29.9990000  0  7G 3G14G15G17G18G21G31
  21941169.8084    2098717.31947   1620046.92446                  21941177.4764
        20.7504         21.0004
  20548217.1984   -6039630.02847  -4637093.44047                  20548222.6364
        26.7504         28.5004
  22546079.6364    5667594.48646   4351632.05446                  22546088.6754
        17.5004         16.7504
  23363279.9334    6331906.20545   4860413.59145                  23363292.2764
         9.0004          9.2504
  22253081.2844    4540981.72247   3486771.38546                  22253087.8824
        23.5004         19.0004
  20970102.6444    -158154.18848   -125545.31847                  20970109.2414
        28.5004         27.0004
  22364993.2924   -3856895.72846  -2959177.51446                  22365000.4564
        17.0004         17.0004
 02  7 11 19 26 44.9990000  0  8G 3G 9G14G15G17G18G21G31
  21944927.4334    2118463.15247   1635433.25746                  21944935.4294
        20.5004         20.7504
  23399607.6124        340.93752
         3.7504
  20542597.0504   -6069165.92648  -4660108.41747                  20542601.9374
        28.0004         29.2504
  22553100.9254    5704492.62146   4380383.78446                  22553109.9404
        16.7504         16.2504
  23370932.1904    6372121.38945   4891749.97945                  23370943.2924
         8.7504          9.2504
  22258168.6444    4567719.82247   3507606.23246                  22258174.8784
        22.2504         19.0004
  20970002.2374    -158679.21847   -125954.44347                  20970008.4484
        27.5004         26.5004
  22362175.8784   -3871698.12146  -2970711.85746                  22362183.5224
        16.2504         16.7504
 02  7 11 19 26 59.9990000  0  7G 3G14G15G17G18G21G31
  21948698.9484    2138280.14647   1650875.04346                  21948706.1944
        20.7504         20.5004
  20536993.7844   -6098614.35948  -4683055.23047                  20536998.2144
        29.5004         29.2504
  22560127.6904    5741418.18746   4409156.86446                  22560136.3664
        16.2504         15.5004
  23378588.8474    6412355.65045   4923101.24245                  23378600.8974
         9.0004          9.0004
  22263254.4564    4594445.47947   3528431.40146                  22263260.6554
        22.0004         18.5004
  20969902.6444    -159202.48147   -126362.18947                  20969908.6084
        27.7504         26.5004
  22359379.0654   -3886396.44646  -2982165.08346                  22359386.5344
        16.5004         15.7504
 02  7 11 19 27 14.9990000  0  7G 3G14G15G17G18G21G31
  21952483.1444    2158168.22047   1666372.21246                  21952490.1324
        21.2504         20.5004
  20531406.6904   -6127975.00648  -4705933.63547                  20531410.5114
        30.0004         29.5004
  22567160.9874    5778371.18846   4437951.32646                  22567169.4874
        18.0004         15.0004
  23386248.8314    6452608.86745   4954467.24845                  23386256.8744
         9.2504          8.7504
  22268338.3474    4621158.86247   3549246.98246                  22268344.1124
        22.7504         18.2504
  20969803.8314    -159723.65948   -126768.31047                  20969809.8664
        29.0004         26.5004
  22356602.2304   -3900990.53046  -2993537.09846                  22356609.1944
        16.5004         15.7504
 02  7 11 19 27 29.9990000  0  8G 3G 9G14G15G17G18G21G31
  21956282.7614    2178133.47947   1681929.51846                  21956289.8904
        21.0004         20.5004
  23400127.4254        355.85452
         4.2504
  20525837.3154   -6157241.32248  -4728738.54447                  20525841.4764
        28.7504         29.2504
  22574198.4874    5815358.03846   4466772.17646                  22574206.9874
        17.2504         15.2504
  23393913.3314    6492887.26245   4985852.93445                  23393924.1984
         9.5004          8.7504
  22273420.7454    4647866.30847   3570057.95546                  22273426.5694
        23.2504         18.2504
  20969706.0194    -160236.33748   -127167.81447                  20969712.4294
        28.0004         26.7504
  22353846.5114   -3915473.83746  -3004822.79146                  22353853.6054
        17.5004         16.2504
 02  7 11 19 27 44.9990000  0  8G 3G 9G14G15G17G18G21G31
  21960096.1284    2198173.39747   1697545.01146                  21960103.5034
        21.0004         20.5004
  23400347.6204       1500.06142
         4.7504
  20520284.6674   -6186415.46247  -4751471.62547                  20520289.2614
        27.2504         29.0004
  22581242.7304    5852376.28746   4495617.50046                  22581251.8974
        17.5004         15.7504
  23401582.5194    6533188.66845   5017256.48245                  23401594.8274
         9.2504         10.0004
  22278501.8154    4674565.50747   3590862.51246                  22278507.6164
        24.0004         18.2504
  20969609.6364    -160742.88947   -127562.54047                  20969616.2104
        27.7504         26.7504
  22351110.8394   -3929848.72246  -3016023.99346                  22351118.0504
        17.5004         16.0004
 02  7 11 19 27 59.9990000  0  8G 3G 9G14G15G17G18G21G31
  21963925.2924    2218291.04547   1713221.07746                  21963932.7844
        22.0004         20.7504
  23400587.3004       2759.83443
         5.7504
  20514751.0344   -6215494.08547  -4774130.27947                  20514756.2614
        26.7504         28.5004
  22588293.3784    5889429.20546   4524489.84546                  22588302.3234
        16.5004         15.7504
  23409258.0034    6573516.17645   5048680.39445                  23409269.3744
         9.5004          9.5004
  22283581.6834    4701259.70247   3611663.15146                  22283587.5544
        24.5004         19.0004
  20969515.3154    -161239.77748   -127949.74247                  20969521.6674
        28.0004         26.0004
  22348396.6364   -3944111.71446  -3027138.02246                  22348403.3154
        17.2504         15.7504
 02  7 11 19 28 14.9990000  0  8G 3G 9G14G15G17G18G21G31
  21967767.0114    2238482.40047   1728954.57446                  21967774.6674
        21.2504         20.5004
  23400849.4484       4131.34544
         7.0004
  20509234.8784   -6244480.70647  -4796717.24747                  20509240.3274
        26.2504         28.5004
  22595351.0974    5926512.88946   4553386.15146                  22595360.4174
        16.7504         15.5004
  23416936.0194    6613865.94545   5080121.64245                  23416948.0464
        10.5004         10.2504
  22288659.4014    4727945.03747   3632456.90146                  22288665.5424
        22.2504         18.7504
  20969421.8864    -161730.76148   -128332.33647                  20969427.8274
        28.0004         25.7504
  22345703.0264   -3958266.55946  -3038167.77846                  22345710.1084
        17.5004         16.7504
 02  7 11 19 28 29.9990000  0  8G 3G 9G14G15G17G18G21G31
  21971623.0034    2258747.42247   1744745.46746                  21971630.5194
        21.2504         20.5004
  23401132.2374       5614.94844
         7.0004
  20503736.9174   -6273375.08147  -4819232.33247                  20503741.8624
        27.2504         29.0004
  22602413.5344    5963627.61546   4582306.63246                  22602422.9134
        16.5004         15.2504
  23424618.5814    6654237.94945   5111580.21845                  23424630.6794
        10.0004         10.5004
  22293736.0264    4754621.89347   3653244.05246                  22293742.4954
        21.2504         18.0004
  20969329.7374    -162215.63247   -128710.15646                  20969335.7024
        27.0004         25.0004
  22343029.0584   -3972312.88046  -3049112.95446                  22343037.4404
        15.7504         17.2504
 02  7 11 19 28 44.9990000  0  8G 3G 9G14G15G17G18G21G31
  21975493.9334    2279087.78247   1760595.07746                  21975501.3664
        21.2504         21.0004
  23401434.5584       7212.44444      1002.10655                  23401445.5424
         6.7504          6.2504
  20498256.5654   -6302175.14448  -4841673.91847                  20498261.4294
        28.0004         29.2504
  22609481.5974    6000775.06746   4611252.64346                  22609491.3514
        14.7504         15.0004
  23432304.2924    6694634.12645   5143057.65145                  23432314.9954
         9.0004          9.0004
  22298811.4174    4781292.07947   3674025.99846                  22298818.3234
        20.5004         18.0004
  20969239.0264    -162692.47647   -129081.72846                  20969244.9684
        27.2504         25.2504
  22340377.5034   -3986248.79546  -3059972.09746                  22340386.0034
        16.7504         17.0004
 02  7 11 19 28 59.9990000  0  8G 3G 9G14G15G17G18G21G31
  21979377.8084    2299501.80347   1776502.07546                  21979385.2304
        20.5004         20.7504
  23401760.4874       8922.57444      2334.61144                  23401771.1904
         6.5004          4.2504
  20492794.0344   -6330882.08548  -4864042.94747                  20492798.9334
        28.0004         29.5004
  22616556.5424    6037953.77746   4640222.96646                  22616565.9094
        14.7504         14.5004
  23439996.5194    6735053.05245   5174552.82245                  23440008.5114
         9.2504          9.0004
  22303884.0194    4807954.09146   3694801.56046                  22303891.3824
        18.0004         17.0004
  20969150.0894    -163162.74948   -129448.18946                  20969155.8784
        28.5004         25.2504
  22337747.3314   -4000075.59446  -3070746.24146                  22337754.9404
        18.0004         16.7504
 02  7 11 19 29 14.9990000  0  8G 3G 9G14G15G17G18G21G31
  21983277.2924    2319991.83947   1792468.31546                  21983285.0194
        20.2504         20.2504
  23402109.3314      10747.96645      3757.06845                  23402116.4954
         7.7504          6.2504
  20487349.7454   -6359493.26647  -4886337.36547                  20487354.7264
        27.7504         29.2504
  22623637.9954    6075166.24346   4669219.59446                  22623647.5854
        14.2504         14.2504
  23447694.0814    6775497.17645   5206067.59445                  23447705.3234
        10.7504          9.7504
  22308956.5654    4834610.53046   3715572.78046                  22308963.6364
        17.5004         16.7504
  20969061.6054    -163623.72047   -129807.39847                  20969067.7224
        27.2504         25.7504
  22335137.6514   -4013790.64046  -3081433.30646                  22335144.7454
        18.7504         16.5004
 02  7 11 19 29 29.9990000  0  8G 3G 9G14G15G17G18G21G31
  21987190.5034    2340556.83147   1808492.96246                  21987197.9724
        21.0004         20.5004
  23402477.9804      12687.78345      5268.58645                  23402482.6204
         7.7504          6.0004
  20481923.1364   -6388009.35247  -4908557.67547                  20481928.2334
        27.5004         29.0004
  22630725.9644    6112411.45646   4698241.77346                  22630734.6754
        15.0004         13.7504
  23455394.9484    6815965.40145   5237601.16045                  23455404.3154
        10.5004         10.0004
  22314027.9954    4861260.37146   3736338.88046                  22314034.4294
        16.2504         16.0004
  20968975.1284    -164076.42347   -130160.15547                  20968981.3514
        27.0004         26.2504
  22332550.1444   -4027394.73447  -3092033.89646                  22332556.4954
        20.5004         16.7504
 02  7 11 19 29 44.9990000  0  8G 3G 9G14G15G17G18G21G31
  21991120.0974    2361204.23247   1824581.81246                  21991127.4374
        21.2504         20.5004
  23402868.1204      14749.78044      6875.36945                  23402875.7064
         6.7504          6.2504
  20476515.6904   -6416422.55147  -4930697.82147                  20476520.9054
        26.5004         29.0004
  22637820.4724    6149697.04046   4727295.42746                  22637829.2764
        14.2504         14.0004
  23463101.5974    6856465.47145   5269159.53145                  23463114.3154
         9.5004         10.0004
  22319099.3234    4887911.35546   3757105.85646                  22319106.6514
        15.5004         15.5004
  20968892.5034    -164513.04348   -130500.38947                  20968898.7844
        28.7504         26.5004
  22329983.1984   -4040880.07646  -3102541.95246                  22329989.2574
        19.5004         17.0004
 02  7 11 19 29 59.9990000  0  8G 3G 9G14G15G17G18G21G31
  21995065.7064    2381937.81347   1840737.80746                  21995073.1514
        21.5004         20.5004
  23403285.5814      16937.96445      8580.50345                  23403295.7574
         8.0004          6.5004
  20471129.1674   -6444728.69147  -4952754.52747                  20471134.6164
        26.2504         28.7504
  22644924.3314    6187027.04546   4756383.66246                  22644934.0154
        14.5004         14.0004
  23470816.2374    6897001.33845   5300745.76945                  23470827.5264
        10.0004          9.0004
  22324172.4334    4914567.57646   3777876.89646                  22324178.9724
        16.0004         15.5004
  20968813.2844    -164929.32948   -130824.78347                  20968819.9404
        28.7504         26.7504
  22327440.4954   -4054242.59246  -3112954.30046                  22327446.3314
        19.5004         16.5004
